M I D A S
Marine Information and Data Acquisition System
Tripno 906 of the Zeeleeuw from 2005-05-27 06:47:20 to 2005-05-27 12:54:50
Back to CruiseResearch ActivitiesStationsMapUnderway DataData graphs

EquipmentUnitsComment
TimeDGPSUTC
LatitudeDGPSDM.mWGS84
LongitudeDGPSDM.mWGS84
TemperatureSBE03/SBE38deg celciusITS90
ConductivitySBE21S/mITS90
SalinitySBE21 Practical Salinity Units
ChlorophylAChelsea fluorimeterg/lCalibrated in Aceton
Missing or incorrect values are displayed as -999
Sea surface data collected by the RV Zeeleeuw from 2005-05-27 06:38:38 to 2005-05-27 13:02:10
                                                                                    Next 1000 lines
Time Latitude Longitude Temperature Conductivity Salinity ChlorophylA
2005-05-27 06:38:48 51°13.596 2°56.108 20.9954 0.076881 0.396194 -0.882377
2005-05-27 06:38:53 51°13.596 2°56.108 20.993 0.076881 0.396206 -0.882377
2005-05-27 06:38:58 51°13.596 2°56.108 20.9809 0.076881 0.396206 -0.882377
2005-05-27 06:39:02 51°13.596 2°56.108 20.8156 0.076881 0.3962 -0.882377
2005-05-27 06:39:08 51°13.596 2°56.107 20.7432 0.076881 0.3962 -0.882377
2005-05-27 06:39:13 51°13.596 2°56.106 20.7536 0.076881 0.396206 -0.882377
2005-05-27 06:39:18 51°13.596 2°56.103 20.7355 0.076881 0.396206 -0.882377
2005-05-27 06:39:22 51°13.597 2°56.1 20.784 0.076881 0.3962 -0.882377
2005-05-27 06:39:28 51°13.598 2°56.096 20.8751 0.076881 0.3962 -0.882377
2005-05-27 06:39:32 51°13.599 2°56.091 20.8449 0.076881 0.3962 -0.882377
2005-05-27 06:39:38 51°13.601 2°56.085 20.8527 0.076881 0.396206 -0.882377
2005-05-27 06:39:42 51°13.603 2°56.079 20.8881 0.076881 0.396206 -0.848668
2005-05-27 06:39:48 51°13.605 2°56.071 20.8759 0.076881 0.396212 -0.882377
2005-05-27 06:39:52 51°13.606 2°56.066 20.8868 0.076881 0.396212 -0.882377
2005-05-27 06:39:58 51°13.608 2°56.058 20.8604 0.076881 0.396212 -0.882377
2005-05-27 06:40:03 51°13.61 2°56.049 20.8568 0.076881 0.396212 -0.882377
2005-05-27 06:40:08 51°13.612 2°56.042 20.861 0.076881 0.396212 -0.882377
2005-05-27 06:40:12 51°13.613 2°56.035 20.8851 0.076881 0.396212 -0.882377
2005-05-27 06:40:18 51°13.616 2°56.025 20.8974 0.076881 0.396217 -0.848668
2005-05-27 06:40:23 51°13.617 2°56.016 20.9198 0.076881 0.396217 -0.882377
2005-05-27 06:40:28 51°13.62 2°56.006 20.9548 0.076881 0.396217 -0.882377
2005-05-27 06:40:32 51°13.622 2°55.999 20.9501 0.076881 0.396217 -0.882377
2005-05-27 06:40:38 51°13.625 2°55.988 20.917 0.076881 0.396223 -0.882377
2005-05-27 06:40:42 51°13.627 2°55.981 20.96 0.076881 0.396223 -0.882377
2005-05-27 06:40:48 51°13.631 2°55.969 20.9488 0.076881 0.396223 -0.848668
2005-05-27 06:40:53 51°13.633 2°55.96 20.9588 0.076881 0.396229 -0.882377
2005-05-27 06:40:58 51°13.637 2°55.95 20.9633 0.076881 0.396229 -0.882377
2005-05-27 06:41:03 51°13.641 2°55.94 20.9723 0.076881 0.396235 -0.882377
2005-05-27 06:41:08 51°13.645 2°55.929 20.9662 0.076881 0.396229 -0.882377
2005-05-27 06:41:12 51°13.648 2°55.922 20.9651 0.076881 0.396229 -0.882377
2005-05-27 06:41:18 51°13.653 2°55.91 20.9644 0.076881 0.396229 -0.882377
2005-05-27 06:41:22 51°13.657 2°55.902 20.9616 0.076881 0.396235 -0.882377
2005-05-27 06:41:28 51°13.662 2°55.891 20.9601 0.076881 0.396235 -0.882377
2005-05-27 06:41:33 51°13.667 2°55.881 20.9345 0.076881 0.396241 -0.848668
2005-05-27 06:41:38 51°13.671 2°55.871 20.932 0.076881 0.396241 -0.848668
2005-05-27 06:41:42 51°13.675 2°55.863 20.9343 0.076881 0.396235 -0.848668
2005-05-27 06:41:48 51°13.681 2°55.851 20.9356 0.076881 0.396241 -0.848668
2005-05-27 06:41:53 51°13.686 2°55.842 20.9373 0.076881 0.396241 -0.848668
2005-05-27 06:41:58 51°13.691 2°55.832 20.9245 0.076881 0.396241 -0.848668
2005-05-27 06:42:03 51°13.696 2°55.821 20.9324 0.076881 0.396241 -0.882377
2005-05-27 06:42:08 51°13.702 2°55.81 20.9294 0.076881 0.396241 -0.882377
2005-05-27 06:42:12 51°13.706 2°55.802 20.9363 0.076881 0.396241 -0.882377
2005-05-27 06:42:18 51°13.712 2°55.791 20.9386 0.076881 0.396241 -0.882377
2005-05-27 06:42:23 51°13.718 2°55.78 20.9839 0.076881 0.396247 -0.848668
2005-05-27 06:42:28 51°13.723 2°55.77 20.9496 0.076881 0.396247 -0.848668
2005-05-27 06:42:32 51°13.728 2°55.762 20.9756 0.076881 0.396253 -0.848668
2005-05-27 06:42:38 51°13.734 2°55.751 20.9767 0.076881 0.396247 -0.848668
2005-05-27 06:42:43 51°13.741 2°55.74 20.9924 0.076881 0.396253 -0.848668
2005-05-27 06:42:48 51°13.747 2°55.731 20.9778 0.076881 0.396247 -0.882377
2005-05-27 06:42:53 51°13.753 2°55.723 20.9879 0.076881 0.396253 -0.848668
2005-05-27 06:42:58 51°13.76 2°55.714 20.9869 0.076881 0.396253 -0.848668
2005-05-27 06:43:03 51°13.767 2°55.705 21.0016 0.076881 0.396259 -0.848668
2005-05-27 06:43:08 51°13.775 2°55.697 21.0571 0.076881 0.396253 -0.848668
2005-05-27 06:43:13 51°13.781 2°55.691 21.0469 0.076881 0.396259 -0.882377
2005-05-27 06:43:18 51°13.789 2°55.684 21.0503 0.076881 0.396259 -0.848668
2005-05-27 06:43:23 51°13.795 2°55.68 21.0571 0.076881 0.396259 -0.882377
2005-05-27 06:43:28 51°13.801 2°55.676 21.024 0.076881 0.396259 -0.882377
2005-05-27 06:43:32 51°13.805 2°55.673 21.0412 0.076881 0.396264 -0.848668
2005-05-27 06:43:38 51°13.808 2°55.671 21.0051 0.076881 0.396264 -0.848668
2005-05-27 06:43:42 51°13.81 2°55.67 20.8185 0.076881 0.39627 -0.848668
2005-05-27 06:43:47 51°13.813 2°55.668 20.769 0.076881 0.396264 -0.848668
2005-05-27 06:43:52 51°13.816 2°55.667 20.8974 0.076881 0.39627 -0.882377
2005-05-27 06:43:58 51°13.82 2°55.665 20.8489 0.076881 0.39627 -0.882377
2005-05-27 06:44:03 51°13.822 2°55.663 20.8593 0.076881 0.396264 -0.882377
2005-05-27 06:44:08 51°13.824 2°55.661 20.8131 0.076881 0.39627 -0.848668
2005-05-27 06:44:12 51°13.827 2°55.659 20.7857 0.076881 0.396276 -0.882377
2005-05-27 06:44:18 51°13.831 2°55.657 20.8294 0.076881 0.396282 -0.882377
2005-05-27 06:44:23 51°13.834 2°55.655 20.8703 0.076881 0.396282 -0.848668
2005-05-27 06:44:28 51°13.838 2°55.652 20.8775 0.076881 0.396282 -0.848668
2005-05-27 06:44:32 51°13.842 2°55.65 20.8812 0.076881 0.396276 -0.848668
2005-05-27 06:44:38 51°13.847 2°55.647 20.8961 0.076881 0.396282 -0.848668
2005-05-27 06:44:43 51°13.853 2°55.644 20.9156 0.076881 0.396276 -0.882377
2005-05-27 06:44:48 51°13.858 2°55.642 20.9159 0.076881 0.39627 -0.882377
2005-05-27 06:44:53 51°13.863 2°55.64 20.9126 0.076881 0.396282 -0.882377
2005-05-27 06:44:58 51°13.867 2°55.637 20.9167 0.076881 0.396282 -0.882377
2005-05-27 06:45:03 51°13.873 2°55.635 20.9433 0.076881 0.396282 -0.848668
2005-05-27 06:45:08 51°13.88 2°55.632 20.9766 0.076881 0.396282 -0.848668
2005-05-27 06:45:13 51°13.886 2°55.631 21.0035 0.076881 0.396288 -0.848668
2005-05-27 06:45:18 51°13.893 2°55.631 20.9785 0.076881 0.396288 -0.882377
2005-05-27 06:45:22 51°13.898 2°55.63 20.9977 0.076881 0.396294 -0.882377
2005-05-27 06:45:28 51°13.906 2°55.629 20.9713 0.076881 0.396288 -0.848668
2005-05-27 06:45:32 51°13.912 2°55.629 20.9798 0.076881 0.396288 -0.848668
2005-05-27 06:45:38 51°13.92 2°55.631 20.9952 0.076881 0.3963 -0.882377
2005-05-27 06:45:42 51°13.925 2°55.632 21.0509 0.076881 0.396288 -0.848668
2005-05-27 06:45:48 51°13.931 2°55.632 21.075 0.076881 0.396294 -0.882377
2005-05-27 06:45:53 51°13.935 2°55.633 20.9958 0.076881 0.396306 -0.848668
2005-05-27 06:45:58 51°13.937 2°55.633 21.051 0.076881 0.396306 -0.848668
2005-05-27 06:46:03 51°13.938 2°55.633 21.0722 0.076881 0.3963 -0.882377
2005-05-27 06:46:08 51°13.938 2°55.631 21.0616 0.076881 0.396294 -0.848668
2005-05-27 06:46:12 51°13.938 2°55.629 20.9942 0.076881 0.3963 -0.882377
2005-05-27 06:46:18 51°13.936 2°55.626 20.8065 0.076881 0.396294 -0.882377
2005-05-27 06:46:23 51°13.935 2°55.622 20.7104 0.076881 0.3963 -0.882377
2005-05-27 06:46:28 51°13.932 2°55.616 20.7473 0.076881 0.3963 -0.882377
2005-05-27 06:46:32 51°13.931 2°55.609 20.4613 0.076881 0.3963 -0.882377
2005-05-27 06:46:37 51°13.93 2°55.602 20.713 0.076881 0.396317 -0.882377
2005-05-27 06:46:43 51°13.929 2°55.593 20.7614 0.076881 0.396323 -0.882377
2005-05-27 06:46:48 51°13.928 2°55.587 20.7618 0.076881 0.396341 -0.882377
2005-05-27 06:46:52 51°13.928 2°55.583 20.845 0.076881 0.396341 -0.916087
2005-05-27 06:46:58 51°13.928 2°55.58 20.7018 0.076881 0.396341 -0.916087
2005-05-27 06:47:02 51°13.928 2°55.579 20.7784 0.076881 0.396341 -0.882377
2005-05-27 06:47:08 51°13.928 2°55.58 20.8138 0.076881 0.396341 -0.882377
2005-05-27 06:47:12 51°13.928 2°55.582 20.8647 0.076881 0.396341 -0.882377
2005-05-27 06:47:18 51°13.928 2°55.586 20.8828 0.076881 0.396347 -0.882377
2005-05-27 06:47:22 51°13.928 2°55.59 20.942 0.076881 0.396335 -0.848668
2005-05-27 06:47:28 51°13.928 2°55.593 20.9308 0.076881 0.396335 -0.848668
2005-05-27 06:47:32 51°13.928 2°55.594 20.9343 0.076881 0.396329 -0.916087
2005-05-27 06:47:38 51°13.928 2°55.594 20.9272 0.076881 0.396329 -0.848668
2005-05-27 06:47:42 51°13.928 2°55.592 20.7608 0.076881 0.396323 -0.882377
2005-05-27 06:47:48 51°13.93 2°55.587 20.6326 0.076881 0.396306 -0.882377
2005-05-27 06:47:53 51°13.932 2°55.583 20.8518 0.076881 0.396312 -0.882377
2005-05-27 06:47:58 51°13.935 2°55.577 20.8478 0.076881 0.396312 -0.882377
2005-05-27 06:48:03 51°13.939 2°55.57 20.867 0.076881 0.3963 -0.848668
2005-05-27 06:48:08 51°13.944 2°55.563 20.8209 0.076881 0.396306 -0.882377
2005-05-27 06:48:13 51°13.949 2°55.556 20.8402 0.076881 0.396317 -0.848668
2005-05-27 06:48:18 51°13.954 2°55.55 20.8476 0.076881 0.396329 -0.848668
2005-05-27 06:48:22 51°13.96 2°55.544 20.8417 0.076881 0.396335 -0.882377
2005-05-27 06:48:28 51°13.969 2°55.535 20.8395 0.076881 0.396335 -0.882377
2005-05-27 06:48:33 51°13.977 2°55.527 20.8383 0.076881 0.396335 -0.848668
2005-05-27 06:48:38 51°13.986 2°55.519 20.8066 0.076881 0.396335 -0.882377
2005-05-27 06:48:43 51°13.995 2°55.511 20.784 0.076881 0.396329 -0.882377
2005-05-27 06:48:47 51°14.003 2°55.503 20.7519 0.076881 0.396323 -0.848668
2005-05-27 06:48:53 51°14.015 2°55.494 20.7444 0.076881 0.396323 -0.848668
2005-05-27 06:48:57 51°14.024 2°55.487 20.7586 0.076881 0.396323 -0.848668
2005-05-27 06:49:02 51°14.034 2°55.479 20.7769 0.076881 0.396323 -0.882377
2005-05-27 06:49:08 51°14.046 2°55.47 20.8098 0.076881 0.396323 -0.848668
2005-05-27 06:49:12 51°14.056 2°55.462 20.7993 0.076881 0.396329 -0.882377
2005-05-27 06:49:17 51°14.067 2°55.453 20.7444 0.076881 0.396335 -0.882377
2005-05-27 06:49:22 51°14.077 2°55.446 20.7475 0.076881 0.396341 -0.882377
2005-05-27 06:49:28 51°14.092 2°55.436 20.7523 0.076881 0.396341 -0.882377
2005-05-27 06:49:32 51°14.101 2°55.43 20.7946 0.076881 0.396335 -0.882377
2005-05-27 06:49:38 51°14.115 2°55.421 20.8083 0.076881 0.396341 -0.848668
2005-05-27 06:49:42 51°14.124 2°55.415 20.828 0.076881 0.396341 -0.882377
2005-05-27 06:49:48 51°14.139 2°55.405 20.8515 0.076881 0.396341 -0.882377
2005-05-27 06:49:52 51°14.15 2°55.397 20.8716 0.076881 0.396341 -0.848668
2005-05-27 06:49:58 51°14.162 2°55.387 20.8863 0.076881 0.396341 -0.848668
2005-05-27 06:50:02 51°14.172 2°55.38 20.8976 0.076881 0.396347 -0.882377
2005-05-27 06:50:07 51°14.185 2°55.368 20.9041 0.076881 0.396341 -0.848668
2005-05-27 06:50:12 51°14.196 2°55.358 20.9059 0.076881 0.396347 -0.882377
2005-05-27 06:50:18 51°14.209 2°55.346 20.9085 0.076881 0.396341 -0.882377
2005-05-27 06:50:22 51°14.219 2°55.335 20.9109 0.076881 0.396347 -0.848668
2005-05-27 06:50:28 51°14.232 2°55.321 20.9092 0.076881 0.396347 -0.848668
2005-05-27 06:50:32 51°14.241 2°55.309 20.9092 0.076881 0.396347 -0.848668
2005-05-27 06:50:38 51°14.253 2°55.294 20.9032 0.076881 0.396353 -0.848668
2005-05-27 06:50:43 51°14.263 2°55.28 20.9059 0.076881 0.396353 -0.882377
2005-05-27 06:50:48 51°14.274 2°55.264 20.8924 0.076881 0.396347 -0.848668
2005-05-27 06:50:52 51°14.283 2°55.25 20.8908 0.076881 0.396353 -0.882377
2005-05-27 06:50:58 51°14.293 2°55.232 20.9048 0.076881 0.396347 -0.848668
2005-05-27 06:51:03 51°14.302 2°55.214 20.8995 0.076881 0.396347 -0.848668
2005-05-27 06:51:08 51°14.312 2°55.196 20.8893 0.076881 0.396347 -0.848668
2005-05-27 06:51:12 51°14.319 2°55.18 20.8424 0.076881 0.396353 -0.848668
2005-05-27 06:51:17 51°14.328 2°55.162 20.7326 0.076881 0.396353 -0.848668
2005-05-27 06:51:23 51°14.338 2°55.141 20.6412 0.076881 0.396353 -0.848668
2005-05-27 06:51:28 51°14.348 2°55.122 20.8702 0.076881 0.396353 -0.848668
2005-05-27 06:51:32 51°14.356 2°55.105 20.8803 0.076881 0.396347 -0.848668
2005-05-27 06:51:38 51°14.366 2°55.083 20.8831 0.076881 0.396353 -0.848668
2005-05-27 06:51:42 51°14.373 2°55.065 20.8324 0.076881 0.396353 -0.848668
2005-05-27 06:51:48 51°14.382 2°55.041 20.847 0.076881 0.396359 -0.848668
2005-05-27 06:51:53 51°14.39 2°55.02 20.8729 0.076881 0.396359 -0.882377
2005-05-27 06:51:57 51°14.396 2°54.999 20.883 0.076881 0.396359 -0.882377
2005-05-27 06:52:02 51°14.402 2°54.979 20.9086 0.076881 0.396365 -0.848668
2005-05-27 06:52:08 51°14.409 2°54.951 20.8983 0.076881 0.39637 -0.882377
2005-05-27 06:52:12 51°14.414 2°54.93 20.8351 0.076881 0.39637 -0.848668
2005-05-27 06:52:18 51°14.42 2°54.904 20.8743 0.076881 0.39637 -0.848668
2005-05-27 06:52:22 51°14.424 2°54.885 20.7758 0.076881 0.396365 -0.848668
2005-05-27 06:52:28 51°14.43 2°54.856 20.7344 0.076881 0.396365 -0.848668
2005-05-27 06:52:32 51°14.434 2°54.835 20.7309 0.076881 0.396359 -0.882377
2005-05-27 06:52:38 51°14.439 2°54.808 20.8691 0.076881 0.396359 -0.848668
2005-05-27 06:52:42 51°14.443 2°54.789 20.9283 0.076881 0.396353 -0.882377
2005-05-27 06:52:48 51°14.448 2°54.758 20.9478 0.076881 0.396365 -0.882377
2005-05-27 06:52:52 51°14.451 2°54.734 20.9572 0.076881 0.396376 -0.848668
2005-05-27 06:52:58 51°14.452 2°54.705 20.8746 0.076881 0.396376 -0.848668
2005-05-27 06:53:03 51°14.453 2°54.678 20.7596 0.076881 0.396382 -0.882377
2005-05-27 06:53:08 51°14.454 2°54.65 20.8671 0.076881 0.396388 -0.848668
2005-05-27 06:53:12 51°14.455 2°54.625 20.8588 0.076881 0.396376 -0.882377
2005-05-27 06:53:18 51°14.455 2°54.593 20.7542 0.076881 0.39637 -0.882377
2005-05-27 06:53:22 51°14.456 2°54.565 20.7811 0.076881 0.396359 -0.882377
2005-05-27 06:53:28 51°14.456 2°54.532 20.7246 0.076881 0.396359 -0.882377
2005-05-27 06:53:32 51°14.456 2°54.504 20.7547 0.076881 0.396365 -0.848668
2005-05-27 06:53:38 51°14.455 2°54.47 20.743 0.076881 0.396359 -0.848668
2005-05-27 06:53:43 51°14.454 2°54.438 20.8264 0.076881 0.396376 -0.848668
2005-05-27 06:53:48 51°14.452 2°54.407 20.8658 0.076881 0.396376 -0.848668
2005-05-27 06:53:52 51°14.45 2°54.378 20.8546 0.076881 0.396376 -0.882377
2005-05-27 06:53:58 51°14.447 2°54.344 20.8648 0.076881 0.396376 -0.882377
2005-05-27 06:54:02 51°14.443 2°54.318 20.7987 0.076881 0.396382 -0.848668
2005-05-27 06:54:08 51°14.438 2°54.281 20.7936 0.076881 0.396394 -0.882377
2005-05-27 06:54:12 51°14.434 2°54.252 20.7043 0.076881 0.396388 -0.882377
2005-05-27 06:54:18 51°14.428 2°54.218 20.8097 0.076881 0.396388 -0.848668
2005-05-27 06:54:22 51°14.424 2°54.193 20.7932 0.076881 0.396388 -0.882377
2005-05-27 06:54:28 51°14.415 2°54.153 20.7758 0.076881 0.396376 -0.848668
2005-05-27 06:54:33 51°14.409 2°54.126 20.771 0.076881 0.396376 -0.848668
2005-05-27 06:54:38 51°14.402 2°54.095 20.7993 0.076881 0.396382 -0.882377
2005-05-27 06:54:42 51°14.396 2°54.07 20.8058 0.076881 0.396382 -0.848668
2005-05-27 06:54:48 51°14.386 2°54.033 20.7911 0.076881 0.396382 -0.882377
2005-05-27 06:54:52 51°14.379 2°54.006 20.7383 0.076881 0.396388 -0.848668
2005-05-27 06:54:56 51°14.372 2°53.984 20.7728 0.076881 0.396388 -0.848668
2005-05-27 06:55:03 51°14.36 2°53.946 20.7966 0.076881 0.396388 -0.882377
2005-05-27 06:55:07 51°14.352 2°53.92 20.7366 0.076881 0.396394 -0.882377
2005-05-27 06:55:12 51°14.342 2°53.89 20.8028 0.076881 0.396394 -0.848668
2005-05-27 06:55:18 51°14.332 2°53.858 20.8092 0.076881 0.396394 -0.882377
2005-05-27 06:55:22 51°14.322 2°53.832 20.8146 0.076881 0.3964 -0.882377
2005-05-27 06:55:28 51°14.311 2°53.802 20.7445 0.076881 0.3964 -0.882377
2005-05-27 06:55:32 51°14.301 2°53.777 20.8105 0.076881 0.396394 -0.848668
2005-05-27 06:55:38 51°14.29 2°53.746 20.7227 0.076881 0.396394 -0.882377
2005-05-27 06:55:42 51°14.281 2°53.723 20.7366 0.076881 0.396394 -0.848668
2005-05-27 06:55:48 51°14.266 2°53.687 20.7389 0.076881 0.396388 -0.882377
2005-05-27 06:55:52 51°14.257 2°53.665 20.7912 0.076881 0.396394 -0.882377
2005-05-27 06:55:58 51°14.245 2°53.635 20.6833 0.076881 0.396394 -0.882377
2005-05-27 06:56:03 51°14.235 2°53.607 20.729 0.076881 0.396394 -0.882377
2005-05-27 06:56:08 51°14.224 2°53.58 20.6258 0.076881 0.396394 -0.848668
2005-05-27 06:56:12 51°14.214 2°53.555 20.7372 0.076881 0.3964 -0.882377
2005-05-27 06:56:16 51°14.206 2°53.532 20.7578 0.076881 0.396394 -0.848668
2005-05-27 06:56:23 51°14.193 2°53.496 20.774 0.076881 0.3964 -0.882377
2005-05-27 06:56:28 51°14.182 2°53.468 20.7898 0.076881 0.3964 -0.882377
2005-05-27 06:56:32 51°14.173 2°53.444 20.7587 0.076881 0.396406 -0.882377
2005-05-27 06:56:38 51°14.161 2°53.414 20.7631 0.076881 0.396412 -0.848668
2005-05-27 06:56:42 51°14.153 2°53.392 20.7436 0.076881 0.396412 -0.848668
2005-05-27 06:56:48 51°14.14 2°53.358 20.7475 0.076881 0.396412 -0.882377
2005-05-27 06:56:52 51°14.13 2°53.333 20.731 0.076881 0.396412 -0.882377
2005-05-27 06:56:58 51°14.118 2°53.302 20.8202 0.076881 0.396412 -0.882377
2005-05-27 06:57:02 51°14.11 2°53.279 20.7238 0.076881 0.396412 -0.882377
2005-05-27 06:57:07 51°14.098 2°53.249 20.7439 0.076881 0.396412 -0.882377
2005-05-27 06:57:12 51°14.088 2°53.221 20.7544 0.076881 0.396412 -0.848668
2005-05-27 06:57:18 51°14.076 2°53.19 20.7783 0.076881 0.396406 -0.848668
2005-05-27 06:57:22 51°14.067 2°53.165 20.7415 0.076881 0.396418 -0.882377
2005-05-27 06:57:28 51°14.055 2°53.134 20.7526 0.076881 0.396418 -0.882377
2005-05-27 06:57:33 51°14.045 2°53.106 20.8068 0.076881 0.396418 -0.882377
2005-05-27 06:57:38 51°14.034 2°53.078 20.7771 0.076881 0.396423 -0.848668
2005-05-27 06:57:42 51°14.026 2°53.057 20.8005 0.076881 0.396423 -0.882377
2005-05-27 06:57:48 51°14.013 2°53.023 20.7562 0.076777 0.39587 -0.848668
2005-05-27 06:57:52 51°14.003 2°52.998 20.7863 0.076881 0.396429 -0.882377
2005-05-27 06:57:58 51°13.991 2°52.968 20.733 0.076881 0.396418 -0.882377
2005-05-27 06:58:03 51°13.98 2°52.94 20.7826 0.076881 0.396418 -0.882377
2005-05-27 06:58:08 51°13.97 2°52.913 20.6819 0.076881 0.396423 -0.882377
2005-05-27 06:58:12 51°13.96 2°52.887 20.8157 0.076881 0.396423 -0.882377
2005-05-27 06:58:18 51°13.948 2°52.857 20.7674 0.076881 0.396429 -0.848668
2005-05-27 06:58:23 51°13.938 2°52.83 20.8014 0.076881 0.396435 -0.882377
2005-05-27 06:58:28 51°13.927 2°52.802 20.7835 0.076881 0.396435 -0.882377
2005-05-27 06:58:33 51°13.917 2°52.774 20.7927 0.076881 0.396429 -0.882377
2005-05-27 06:58:38 51°13.906 2°52.746 20.7575 0.076881 0.396435 -0.848668
2005-05-27 06:58:42 51°13.897 2°52.724 20.7773 0.076777 0.395876 -0.882377
2005-05-27 06:58:48 51°13.884 2°52.691 20.764 0.076881 0.396435 -0.848668
2005-05-27 06:58:52 51°13.875 2°52.666 20.8028 0.076881 0.396435 -0.882377
2005-05-27 06:58:57 51°13.866 2°52.641 20.6966 0.076881 0.396435 -0.882377
2005-05-27 06:59:02 51°13.854 2°52.61 20.8298 0.076881 0.396435 -0.882377
2005-05-27 06:59:07 51°13.843 2°52.581 20.7967 0.076881 0.396441 -0.882377
2005-05-27 06:59:12 51°13.833 2°52.553 20.8246 0.076777 0.395893 -0.882377
2005-05-27 06:59:18 51°13.821 2°52.522 20.7979 0.076777 0.395888 -0.882377
2005-05-27 06:59:22 51°13.813 2°52.5 20.8062 0.076777 0.395888 -0.848668
2005-05-27 06:59:27 51°13.801 2°52.47 20.7858 0.076777 0.395888 -0.848668
2005-05-27 06:59:32 51°13.79 2°52.443 20.7623 0.076881 0.396447 -0.882377
2005-05-27 06:59:38 51°13.779 2°52.412 20.7651 0.076881 0.396447 -0.848668
2005-05-27 06:59:42 51°13.77 2°52.39 20.7764 0.076881 0.396447 -0.882377
2005-05-27 06:59:48 51°13.758 2°52.357 20.765 0.076881 0.396447 -0.848668
2005-05-27 06:59:52 51°13.748 2°52.332 20.7913 0.076777 0.395893 -0.882377
2005-05-27 06:59:56 51°13.74 2°52.31 20.8194 0.076777 0.395893 -0.848668
2005-05-27 07:00:03 51°13.726 2°52.273 20.7995 0.076777 0.395893 -0.848668
2005-05-27 07:00:08 51°13.716 2°52.245 20.7992 0.076881 0.396459 -0.848668
2005-05-27 07:00:12 51°13.706 2°52.219 20.8015 0.076881 0.396459 -0.882377
2005-05-27 07:00:18 51°13.695 2°52.189 20.7973 0.076777 0.395911 -0.882377
2005-05-27 07:00:22 51°13.687 2°52.166 20.8144 0.076881 0.396459 -0.848668
2005-05-27 07:00:28 51°13.674 2°52.133 20.801 0.076881 0.396459 -0.848668
2005-05-27 07:00:33 51°13.664 2°52.105 20.7744 0.076881 0.396459 -0.848668
2005-05-27 07:00:37 51°13.654 2°52.08 20.7495 0.076777 0.395911 -0.882377
2005-05-27 07:00:43 51°13.643 2°52.05 20.7847 0.076777 0.395911 -0.848668
2005-05-27 07:00:48 51°13.633 2°52.022 20.819 0.076777 0.395911 -0.848668
2005-05-27 07:00:52 51°13.623 2°51.996 20.7304 0.076881 0.396459 -0.882377
2005-05-27 07:00:58 51°13.612 2°51.965 20.8065 0.076881 0.396459 -0.882377
2005-05-27 07:01:02 51°13.604 2°51.941 20.8268 0.076881 0.396471 -0.848668
2005-05-27 07:01:08 51°13.592 2°51.907 20.7931 0.076881 0.396471 -0.848668
2005-05-27 07:01:12 51°13.583 2°51.882 20.8204 0.076777 0.395923 -0.882377
2005-05-27 07:01:18 51°13.572 2°51.852 20.8145 0.076881 0.396476 -0.848668
2005-05-27 07:01:22 51°13.563 2°51.83 20.8062 0.076881 0.396476 -0.882377
2005-05-27 07:01:28 51°13.551 2°51.797 20.8361 0.076881 0.396476 -0.882377
2005-05-27 07:01:32 51°13.542 2°51.772 20.746 0.076777 0.395923 -0.848668
2005-05-27 07:01:38 51°13.53 2°51.741 20.803 0.076881 0.396476 -0.882377
2005-05-27 07:01:43 51°13.52 2°51.713 20.7995 0.076777 0.395929 -0.848668
2005-05-27 07:01:48 51°13.51 2°51.685 20.8323 0.076777 0.395923 -0.848668
2005-05-27 07:01:53 51°13.5 2°51.657 20.8051 0.076777 0.395929 -0.848668
2005-05-27 07:01:58 51°13.489 2°51.63 20.7939 0.076777 0.395929 -0.848668
2005-05-27 07:02:02 51°13.48 2°51.605 20.8096 0.076777 0.395929 -0.882377
2005-05-27 07:02:08 51°13.469 2°51.574 20.8374 0.076777 0.395923 -0.882377
2005-05-27 07:02:12 51°13.46 2°51.549 20.6981 0.076881 0.396482 -0.848668
2005-05-27 07:02:18 51°13.448 2°51.519 20.8289 0.076777 0.395935 -0.882377
2005-05-27 07:02:22 51°13.44 2°51.496 20.8076 0.076881 0.396494 -0.848668
2005-05-27 07:02:28 51°13.427 2°51.463 20.8268 0.076881 0.396494 -0.848668
2005-05-27 07:02:32 51°13.418 2°51.438 20.8091 0.076881 0.396488 -0.848668
2005-05-27 07:02:38 51°13.407 2°51.407 20.7548 0.076881 0.396494 -0.848668
2005-05-27 07:02:42 51°13.398 2°51.384 20.8535 0.076777 0.395935 -0.882377
2005-05-27 07:02:48 51°13.386 2°51.351 20.7808 0.076881 0.396488 -0.848668
2005-05-27 07:02:52 51°13.377 2°51.326 20.8233 0.076777 0.395946 -0.882377
2005-05-27 07:02:56 51°13.369 2°51.303 20.7968 0.076777 0.395946 -0.882377
2005-05-27 07:03:02 51°13.357 2°51.27 20.8104 0.076881 0.3965 -0.882377
2005-05-27 07:03:08 51°13.345 2°51.239 20.808 0.076777 0.395941 -0.882377
2005-05-27 07:03:13 51°13.335 2°51.211 20.7494 0.076777 0.395952 -0.882377
2005-05-27 07:03:18 51°13.325 2°51.184 20.7823 0.076777 0.395946 -0.882377
2005-05-27 07:03:22 51°13.315 2°51.158 20.8473 0.076881 0.3965 -0.848668
2005-05-27 07:03:28 51°13.304 2°51.128 20.7919 0.076881 0.3965 -0.848668
2005-05-27 07:03:32 51°13.295 2°51.103 20.8159 0.076777 0.395952 -0.882377
2005-05-27 07:03:38 51°13.283 2°51.072 20.7559 0.076881 0.396506 -0.848668
2005-05-27 07:03:42 51°13.275 2°51.05 20.7349 0.076777 0.395958 -0.882377
2005-05-27 07:03:48 51°13.263 2°51.016 20.8294 0.076777 0.395958 -0.848668
2005-05-27 07:03:52 51°13.254 2°50.991 20.8345 0.076777 0.395958 -0.882377
2005-05-27 07:03:58 51°13.242 2°50.961 20.8354 0.076777 0.395958 -0.882377
2005-05-27 07:04:02 51°13.233 2°50.935 20.8123 0.076777 0.395964 -0.882377
2005-05-27 07:04:08 51°13.222 2°50.904 20.859 0.076777 0.395964 -0.882377
2005-05-27 07:04:12 51°13.213 2°50.878 20.8104 0.076777 0.395964 -0.882377
2005-05-27 07:04:18 51°13.202 2°50.846 20.8465 0.076777 0.395958 -0.882377
2005-05-27 07:04:22 51°13.194 2°50.824 20.8187 0.076777 0.395964 -0.848668
2005-05-27 07:04:27 51°13.182 2°50.793 20.8437 0.076777 0.395964 -0.848668
2005-05-27 07:04:32 51°13.172 2°50.766 20.8171 0.076777 0.39597 -0.882377
2005-05-27 07:04:36 51°13.164 2°50.743 20.8079 0.076881 0.396518 -0.882377
2005-05-27 07:04:43 51°13.151 2°50.707 20.8418 0.076777 0.39597 -0.882377
2005-05-27 07:04:48 51°13.141 2°50.679 20.834 0.076881 0.396524 -0.848668
2005-05-27 07:04:52 51°13.131 2°50.655 20.8082 0.076777 0.39597 -0.882377
2005-05-27 07:04:58 51°13.12 2°50.624 20.8246 0.076777 0.39597 -0.882377
2005-05-27 07:05:02 51°13.111 2°50.599 20.8171 0.076777 0.395976 -0.882377
2005-05-27 07:05:08 51°13.1 2°50.569 20.8481 0.076777 0.395976 -0.882377
2005-05-27 07:05:12 51°13.091 2°50.544 20.8034 0.076777 0.395976 -0.882377
2005-05-27 07:05:18 51°13.079 2°50.513 20.8755 0.076777 0.395982 -0.882377
2005-05-27 07:05:22 51°13.071 2°50.491 20.7698 0.076777 0.395976 -0.882377
2005-05-27 07:05:28 51°13.058 2°50.457 20.855 0.076777 0.395976 -0.882377
2005-05-27 07:05:32 51°13.049 2°50.432 20.7656 0.076777 0.395976 -0.882377
2005-05-27 07:05:38 51°13.038 2°50.401 20.8738 0.076777 0.395988 -0.848668
2005-05-27 07:05:42 51°13.029 2°50.379 20.8317 0.076881 0.39653 -0.882377
2005-05-27 07:05:48 51°13.017 2°50.345 20.8612 0.076777 0.395982 -0.882377
2005-05-27 07:05:52 51°13.008 2°50.32 20.8 0.076777 0.395982 -0.882377
2005-05-27 07:05:58 51°12.997 2°50.289 20.8696 0.076777 0.395982 -0.882377
2005-05-27 07:06:03 51°12.986 2°50.262 20.8481 0.076777 0.395988 -0.882377
2005-05-27 07:06:07 51°12.977 2°50.237 20.8217 0.076777 0.395982 -0.848668
2005-05-27 07:06:12 51°12.966 2°50.21 20.8173 0.076777 0.395993 -0.882377
2005-05-27 07:06:18 51°12.955 2°50.18 20.8468 0.076777 0.395993 -0.848668
2005-05-27 07:06:22 51°12.947 2°50.157 20.8304 0.076777 0.395988 -0.882377
2005-05-27 07:06:28 51°12.934 2°50.122 20.8392 0.076777 0.395988 -0.882377
2005-05-27 07:06:32 51°12.925 2°50.097 20.8062 0.076777 0.395988 -0.882377
2005-05-27 07:06:38 51°12.914 2°50.066 20.8531 0.076777 0.395993 -0.882377
2005-05-27 07:06:42 51°12.906 2°50.043 20.8255 0.076777 0.395988 -0.882377
2005-05-27 07:06:48 51°12.894 2°50.01 20.8337 0.076777 0.395993 -0.882377
2005-05-27 07:06:52 51°12.884 2°49.985 20.8592 0.076777 0.395999 -0.882377
2005-05-27 07:06:58 51°12.873 2°49.954 20.8311 0.076777 0.395999 -0.882377
2005-05-27 07:07:02 51°12.865 2°49.932 20.8518 0.076777 0.395999 -0.848668
2005-05-27 07:07:08 51°12.853 2°49.898 20.8279 0.076777 0.395993 -0.882377
2005-05-27 07:07:12 51°12.844 2°49.873 20.8271 0.076777 0.396005 -0.848668
2005-05-27 07:07:17 51°12.834 2°49.845 20.8135 0.076777 0.396005 -0.882377
2005-05-27 07:07:22 51°12.825 2°49.82 20.8085 0.076777 0.396005 -0.848668
2005-05-27 07:07:27 51°12.814 2°49.789 20.8595 0.076777 0.396005 -0.848668
2005-05-27 07:07:32 51°12.803 2°49.761 20.8639 0.076777 0.396005 -0.848668
2005-05-27 07:07:38 51°12.792 2°49.73 20.8142 0.076777 0.396005 -0.882377
2005-05-27 07:07:43 51°12.782 2°49.702 20.8667 0.076777 0.396011 -0.882377
2005-05-27 07:07:48 51°12.771 2°49.67 20.7759 0.076777 0.396011 -0.882377
2005-05-27 07:07:52 51°12.763 2°49.648 20.8671 0.076777 0.396011 -0.882377
2005-05-27 07:07:58 51°12.752 2°49.617 20.8391 0.076777 0.396011 -0.882377
2005-05-27 07:08:02 51°12.743 2°49.592 20.8687 0.076777 0.396011 -0.848668
2005-05-27 07:08:08 51°12.731 2°49.561 20.8654 0.076777 0.396011 -0.882377
2005-05-27 07:08:12 51°12.722 2°49.536 20.8187 0.076777 0.396011 -0.848668
2005-05-27 07:08:18 51°12.711 2°49.506 20.8344 0.076777 0.396011 -0.882377
2005-05-27 07:08:22 51°12.703 2°49.484 20.8557 0.076777 0.396011 -0.882377
2005-05-27 07:08:28 51°12.69 2°49.45 20.8598 0.076777 0.396011 -0.882377
2005-05-27 07:08:32 51°12.681 2°49.425 20.8494 0.076777 0.396017 -0.848668
2005-05-27 07:08:38 51°12.67 2°49.394 20.8619 0.076777 0.396011 -0.882377
2005-05-27 07:08:42 51°12.661 2°49.368 20.8472 0.076777 0.396023 -0.882377
2005-05-27 07:08:48 51°12.65 2°49.338 20.8136 0.076777 0.396017 -0.848668
2005-05-27 07:08:52 51°12.641 2°49.312 20.8506 0.076777 0.396023 -0.882377
2005-05-27 07:08:57 51°12.632 2°49.287 20.8415 0.076777 0.396023 -0.882377
2005-05-27 07:09:02 51°12.622 2°49.259 20.8556 0.076777 0.396023 -0.848668
2005-05-27 07:09:08 51°12.61 2°49.226 20.8581 0.076777 0.396023 -0.848668
2005-05-27 07:09:12 51°12.6 2°49.201 20.8668 0.076777 0.396023 -0.848668
2005-05-27 07:09:18 51°12.589 2°49.17 20.8232 0.076777 0.396023 -0.882377
2005-05-27 07:09:22 51°12.58 2°49.145 20.8285 0.076777 0.396023 -0.848668
2005-05-27 07:09:28 51°12.569 2°49.114 20.86 0.076777 0.396023 -0.848668
2005-05-27 07:09:32 51°12.56 2°49.089 20.8381 0.076777 0.396029 -0.848668
2005-05-27 07:09:36 51°12.552 2°49.067 20.8983 0.076777 0.396023 -0.848668
2005-05-27 07:09:43 51°12.539 2°49.031 20.8419 0.076777 0.396035 -0.882377
2005-05-27 07:09:48 51°12.528 2°49.003 20.8636 0.076777 0.396035 -0.882377
2005-05-27 07:09:52 51°12.519 2°48.978 20.8287 0.076777 0.396029 -0.848668
2005-05-27 07:09:58 51°12.508 2°48.947 20.8458 0.076777 0.396029 -0.848668
2005-05-27 07:10:02 51°12.499 2°48.925 20.867 0.076777 0.396035 -0.882377
2005-05-27 07:10:08 51°12.487 2°48.892 20.8341 0.076777 0.396035 -0.848668
2005-05-27 07:10:12 51°12.478 2°48.867 20.88 0.076777 0.396035 -0.882377
2005-05-27 07:10:18 51°12.466 2°48.836 20.8419 0.076777 0.396035 -0.882377
2005-05-27 07:10:22 51°12.457 2°48.811 20.7727 0.076777 0.396041 -0.848668
2005-05-27 07:10:28 51°12.446 2°48.781 20.8797 0.076777 0.396041 -0.848668
2005-05-27 07:10:32 51°12.437 2°48.756 20.86 0.076777 0.396041 -0.848668
2005-05-27 07:10:38 51°12.426 2°48.725 20.8278 0.076777 0.396041 -0.882377
2005-05-27 07:10:42 51°12.416 2°48.699 20.8542 0.076777 0.396041 -0.882377
2005-05-27 07:10:47 51°12.406 2°48.672 20.87 0.076777 0.396041 -0.882377
2005-05-27 07:10:52 51°12.397 2°48.647 20.8816 0.076777 0.396046 -0.848668
2005-05-27 07:10:58 51°12.385 2°48.614 20.8612 0.076777 0.396046 -0.848668
2005-05-27 07:11:02 51°12.377 2°48.591 20.8699 0.076777 0.396046 -0.882377
2005-05-27 07:11:08 51°12.364 2°48.558 20.8326 0.076777 0.396052 -0.848668
2005-05-27 07:11:12 51°12.356 2°48.533 20.8567 0.076777 0.396052 -0.882377
2005-05-27 07:11:18 51°12.344 2°48.502 20.8577 0.076777 0.396052 -0.882377
2005-05-27 07:11:23 51°12.334 2°48.474 20.8543 0.076777 0.396052 -0.882377
2005-05-27 07:11:28 51°12.324 2°48.446 20.8748 0.076777 0.396052 -0.882377
2005-05-27 07:11:32 51°12.315 2°48.422 20.8707 0.076777 0.396058 -0.882377
2005-05-27 07:11:38 51°12.304 2°48.391 20.8782 0.076777 0.396058 -0.882377
2005-05-27 07:11:42 51°12.296 2°48.368 20.8707 0.076777 0.396052 -0.882377
2005-05-27 07:11:48 51°12.283 2°48.335 20.9052 0.076777 0.396058 -0.882377
2005-05-27 07:11:52 51°12.274 2°48.31 20.86 0.076777 0.396058 -0.882377
2005-05-27 07:11:58 51°12.263 2°48.279 20.8992 0.076777 0.396058 -0.882377
2005-05-27 07:12:02 51°12.255 2°48.257 20.8168 0.076777 0.396058 -0.882377
2005-05-27 07:12:08 51°12.243 2°48.223 20.8769 0.076777 0.396064 -0.882377
2005-05-27 07:12:12 51°12.233 2°48.198 20.8534 0.076777 0.396064 -0.882377
2005-05-27 07:12:18 51°12.222 2°48.167 20.8809 0.076777 0.396064 -0.848668
2005-05-27 07:12:22 51°12.213 2°48.142 20.8825 0.076777 0.39607 -0.882377
2005-05-27 07:12:28 51°12.202 2°48.111 20.9029 0.076777 0.39607 -0.882377
2005-05-27 07:12:32 51°12.193 2°48.086 20.8325 0.076777 0.396064 -0.882377
2005-05-27 07:12:38 51°12.181 2°48.055 20.873 0.076777 0.396076 -0.848668
2005-05-27 07:12:42 51°12.173 2°48.033 20.8777 0.076777 0.39607 -0.848668
2005-05-27 07:12:47 51°12.162 2°48.002 20.8857 0.076777 0.39607 -0.848668
2005-05-27 07:12:53 51°12.151 2°47.971 20.8994 0.076777 0.39607 -0.882377
2005-05-27 07:12:58 51°12.141 2°47.943 20.8784 0.076777 0.39607 -0.882377
2005-05-27 07:13:03 51°12.13 2°47.915 20.9193 0.076777 0.396076 -0.848668
2005-05-27 07:13:07 51°12.121 2°47.89 20.8401 0.076777 0.396076 -0.882377
2005-05-27 07:13:13 51°12.11 2°47.859 20.9048 0.076777 0.396076 -0.848668
2005-05-27 07:13:18 51°12.099 2°47.831 20.8726 0.076777 0.396082 -0.848668
2005-05-27 07:13:23 51°12.089 2°47.803 20.8069 0.076777 0.396082 -0.882377
2005-05-27 07:13:28 51°12.079 2°47.775 20.7911 0.076777 0.396082 -0.882377
2005-05-27 07:13:32 51°12.072 2°47.752 20.7714 0.076777 0.396082 -0.848668
2005-05-27 07:13:38 51°12.061 2°47.717 20.8772 0.076777 0.396076 -0.882377
2005-05-27 07:13:42 51°12.054 2°47.693 20.8127 0.076777 0.39607 -0.882377
2005-05-27 07:13:48 51°12.043 2°47.658 20.8766 0.076777 0.396088 -0.882377
2005-05-27 07:13:52 51°12.035 2°47.632 20.8966 0.076777 0.396088 -0.848668
2005-05-27 07:13:58 51°12.025 2°47.6 20.9091 0.076777 0.396094 -0.882377
2005-05-27 07:14:02 51°12.018 2°47.576 20.89 0.076777 0.396094 -0.882377
2005-05-27 07:14:08 51°12.008 2°47.541 20.8989 0.076777 0.396094 -0.882377
2005-05-27 07:14:12 51°12 2°47.514 20.8713 0.076777 0.396088 -0.882377
2005-05-27 07:14:18 51°11.991 2°47.482 20.9211 0.076777 0.396094 -0.882377
2005-05-27 07:14:22 51°11.983 2°47.455 20.8745 0.076777 0.396094 -0.882377
2005-05-27 07:14:28 51°11.972 2°47.42 20.9072 0.076777 0.396094 -0.882377
2005-05-27 07:14:32 51°11.965 2°47.397 20.907 0.076777 0.396094 -0.882377
2005-05-27 07:14:37 51°11.958 2°47.37 20.8799 0.076777 0.396094 -0.848668
2005-05-27 07:14:42 51°11.949 2°47.341 20.9384 0.076777 0.396099 -0.882377
2005-05-27 07:14:48 51°11.938 2°47.306 20.8596 0.076777 0.396094 -0.848668
2005-05-27 07:14:52 51°11.93 2°47.279 20.8882 0.076777 0.396105 -0.848668
2005-05-27 07:14:58 51°11.92 2°47.247 20.8893 0.076777 0.396105 -0.848668
2005-05-27 07:15:02 51°11.912 2°47.22 20.9045 0.076777 0.396099 -0.848668
2005-05-27 07:15:08 51°11.902 2°47.188 20.9062 0.076777 0.396094 -0.848668
2005-05-27 07:15:12 51°11.894 2°47.162 20.8668 0.076777 0.396105 -0.882377
2005-05-27 07:15:18 51°11.884 2°47.13 20.9199 0.076777 0.396105 -0.882377
2005-05-27 07:15:22 51°11.877 2°47.107 20.827 0.076777 0.396099 -0.848668
2005-05-27 07:15:28 51°11.866 2°47.072 20.8809 0.076777 0.396099 -0.848668
2005-05-27 07:15:32 51°11.858 2°47.046 20.8512 0.076777 0.396105 -0.848668
2005-05-27 07:15:38 51°11.848 2°47.014 20.8975 0.076777 0.396105 -0.882377
2005-05-27 07:15:42 51°11.841 2°46.99 20.9149 0.076777 0.396105 -0.882377
2005-05-27 07:15:47 51°11.831 2°46.958 20.9243 0.076777 0.396105 -0.848668
2005-05-27 07:15:52 51°11.823 2°46.928 20.9503 0.076777 0.396105 -0.882377
2005-05-27 07:15:58 51°11.813 2°46.896 20.8845 0.076777 0.396105 -0.882377
2005-05-27 07:16:02 51°11.806 2°46.873 20.8778 0.076777 0.396117 -0.848668
2005-05-27 07:16:08 51°11.796 2°46.838 20.8707 0.076777 0.396117 -0.848668
2005-05-27 07:16:12 51°11.788 2°46.811 20.9188 0.076777 0.396117 -0.882377
2005-05-27 07:16:18 51°11.778 2°46.779 20.8739 0.076777 0.396117 -0.848668
2005-05-27 07:16:22 51°11.771 2°46.755 20.9384 0.076777 0.396117 -0.882377
2005-05-27 07:16:28 51°11.761 2°46.72 20.9064 0.076777 0.396117 -0.882377
2005-05-27 07:16:32 51°11.753 2°46.693 20.9297 0.076777 0.396117 -0.882377
2005-05-27 07:16:36 51°11.746 2°46.67 20.8612 0.076777 0.396123 -0.882377
2005-05-27 07:16:43 51°11.734 2°46.632 20.929 0.076777 0.396123 -0.882377
2005-05-27 07:16:48 51°11.726 2°46.603 20.9195 0.076777 0.396123 -0.882377
2005-05-27 07:16:53 51°11.717 2°46.573 20.939 0.076777 0.396123 -0.882377
2005-05-27 07:16:56 51°11.711 2°46.553 20.8967 0.076777 0.396123 -0.882377
2005-05-27 07:17:02 51°11.701 2°46.521 20.9364 0.076777 0.396123 -0.848668
2005-05-27 07:17:08 51°11.69 2°46.486 20.8791 0.076777 0.396123 -0.848668
2005-05-27 07:17:12 51°11.682 2°46.46 20.9274 0.076777 0.396129 -0.882377
2005-05-27 07:17:18 51°11.672 2°46.428 20.873 0.076777 0.396129 -0.848668
2005-05-27 07:17:22 51°11.664 2°46.401 20.8961 0.076777 0.396123 -0.882377
2005-05-27 07:17:28 51°11.654 2°46.369 20.9168 0.076777 0.396129 -0.882377
2005-05-27 07:17:33 51°11.645 2°46.34 20.9097 0.076777 0.396129 -0.882377
2005-05-27 07:17:38 51°11.636 2°46.311 20.9364 0.076777 0.396129 -0.882377
2005-05-27 07:17:42 51°11.629 2°46.288 20.9374 0.076777 0.396129 -0.882377
2005-05-27 07:17:48 51°11.618 2°46.253 20.8889 0.076777 0.396129 -0.848668
2005-05-27 07:17:52 51°11.61 2°46.227 20.8889 0.076777 0.396129 -0.848668
2005-05-27 07:17:57 51°11.602 2°46.197 20.8087 0.076777 0.396129 -0.848668
2005-05-27 07:18:03 51°11.594 2°46.164 20.89 0.076777 0.396135 -0.848668
2005-05-27 07:18:08 51°11.586 2°46.134 20.8683 0.076777 0.396135 -0.882377
2005-05-27 07:18:12 51°11.58 2°46.106 20.9221 0.076777 0.396141 -0.882377
2005-05-27 07:18:18 51°11.573 2°46.073 20.9227 0.076777 0.396129 -0.916087
2005-05-27 07:18:22 51°11.567 2°46.048 20.9334 0.076777 0.396135 -0.882377
2005-05-27 07:18:28 51°11.559 2°46.011 20.9016 0.076777 0.396135 -0.882377
2005-05-27 07:18:33 51°11.553 2°45.981 20.935 0.076777 0.396141 -0.882377
2005-05-27 07:18:37 51°11.547 2°45.953 20.9196 0.076777 0.396147 -0.848668
2005-05-27 07:18:43 51°11.54 2°45.919 20.9346 0.076777 0.396153 -0.848668
2005-05-27 07:18:47 51°11.534 2°45.892 20.9172 0.076777 0.396147 -0.882377
2005-05-27 07:18:52 51°11.527 2°45.861 20.9214 0.076777 0.396147 -0.848668
2005-05-27 07:18:58 51°11.52 2°45.827 20.8982 0.076777 0.396147 -0.848668
2005-05-27 07:19:02 51°11.515 2°45.803 20.9553 0.076777 0.396153 -0.848668
2005-05-27 07:19:08 51°11.507 2°45.766 20.9283 0.076777 0.396147 -0.848668
2005-05-27 07:19:12 51°11.501 2°45.738 20.9311 0.076777 0.396153 -0.848668
2005-05-27 07:19:18 51°11.493 2°45.705 20.9255 0.076777 0.396147 -0.848668
2005-05-27 07:19:22 51°11.488 2°45.68 20.8887 0.076777 0.396147 -0.848668
2005-05-27 07:19:28 51°11.48 2°45.644 20.94 0.076777 0.396153 -0.882377
2005-05-27 07:19:32 51°11.474 2°45.616 20.9229 0.076777 0.396153 -0.882377
2005-05-27 07:19:38 51°11.467 2°45.582 20.9598 0.076777 0.396153 -0.848668
2005-05-27 07:19:42 51°11.461 2°45.558 20.8931 0.076777 0.396158 -0.814958
2005-05-27 07:19:48 51°11.453 2°45.521 20.9728 0.076777 0.396158 -0.882377
2005-05-27 07:19:52 51°11.447 2°45.494 20.8857 0.076777 0.396158 -0.882377
2005-05-27 07:19:58 51°11.439 2°45.46 20.9166 0.076777 0.396158 -0.882377
2005-05-27 07:20:02 51°11.434 2°45.435 20.8712 0.076777 0.396158 -0.882377
2005-05-27 07:20:08 51°11.426 2°45.398 20.9262 0.076777 0.396158 -0.882377
2005-05-27 07:20:12 51°11.421 2°45.371 20.8825 0.076777 0.396158 -0.882377
2005-05-27 07:20:18 51°11.414 2°45.336 20.9857 0.076777 0.396158 -0.848668
2005-05-27 07:20:22 51°11.408 2°45.312 20.9378 0.076777 0.396158 -0.882377
2005-05-27 07:20:28 51°11.4 2°45.275 20.9332 0.076777 0.396158 -0.882377
2005-05-27 07:20:32 51°11.394 2°45.247 20.9265 0.076777 0.396164 -0.882377
2005-05-27 07:20:38 51°11.387 2°45.213 20.9326 0.076777 0.396164 -0.882377
2005-05-27 07:20:42 51°11.382 2°45.189 20.9069 0.076777 0.396158 -0.882377
2005-05-27 07:20:48 51°11.374 2°45.151 20.929 0.076777 0.396164 -0.848668
2005-05-27 07:20:52 51°11.368 2°45.124 20.9217 0.076777 0.396164 -0.882377
2005-05-27 07:20:58 51°11.361 2°45.09 20.9243 0.076777 0.396164 -0.882377
2005-05-27 07:21:02 51°11.356 2°45.065 20.9467 0.076777 0.396164 -0.848668
2005-05-27 07:21:08 51°11.348 2°45.028 20.8967 0.076777 0.39617 -0.882377
2005-05-27 07:21:12 51°11.343 2°45 20.9291 0.076777 0.396176 -0.882377
2005-05-27 07:21:17 51°11.337 2°44.969 20.8979 0.076777 0.39617 -0.848668
2005-05-27 07:21:22 51°11.332 2°44.94 20.928 0.076777 0.396176 -0.848668
2005-05-27 07:21:28 51°11.325 2°44.903 20.9665 0.076777 0.396176 -0.882377
2005-05-27 07:21:32 51°11.32 2°44.875 20.9195 0.076777 0.396176 -0.882377
2005-05-27 07:21:38 51°11.313 2°44.84 20.939 0.076777 0.396176 -0.848668
2005-05-27 07:21:42 51°11.309 2°44.815 20.9513 0.076777 0.396176 -0.848668
2005-05-27 07:21:48 51°11.302 2°44.778 20.9271 0.076777 0.396182 -0.848668
2005-05-27 07:21:52 51°11.297 2°44.75 20.9551 0.076777 0.396176 -0.848668
2005-05-27 07:21:58 51°11.291 2°44.715 20.9222 0.076777 0.396176 -0.848668
2005-05-27 07:22:02 51°11.286 2°44.69 20.9652 0.076777 0.396182 -0.882377
2005-05-27 07:22:08 51°11.279 2°44.653 20.9003 0.076777 0.396182 -0.882377
2005-05-27 07:22:13 51°11.274 2°44.622 20.9301 0.076777 0.396176 -0.882377
2005-05-27 07:22:18 51°11.268 2°44.59 20.9496 0.076777 0.396182 -0.848668
2005-05-27 07:22:22 51°11.263 2°44.565 20.9519 0.076777 0.396182 -0.848668
2005-05-27 07:22:28 51°11.257 2°44.527 20.9594 0.076777 0.396182 -0.848668
2005-05-27 07:22:32 51°11.251 2°44.499 20.9317 0.076777 0.396182 -0.848668
2005-05-27 07:22:38 51°11.245 2°44.465 20.9272 0.076777 0.396188 -0.848668
2005-05-27 07:22:42 51°11.24 2°44.436 20.9407 0.076777 0.396188 -0.882377
2005-05-27 07:22:48 51°11.233 2°44.402 20.9301 0.076777 0.396188 -0.882377
2005-05-27 07:22:52 51°11.228 2°44.374 20.9406 0.076777 0.396194 -0.848668
2005-05-27 07:22:58 51°11.221 2°44.34 20.9235 0.076777 0.396188 -0.848668
2005-05-27 07:23:03 51°11.216 2°44.308 20.9402 0.076777 0.396188 -0.848668
2005-05-27 07:23:07 51°11.211 2°44.28 20.9691 0.076777 0.396194 -0.848668
2005-05-27 07:23:12 51°11.206 2°44.251 20.996 0.076777 0.396194 -0.848668
2005-05-27 07:23:17 51°11.199 2°44.217 20.9603 0.076777 0.396194 -0.882377
2005-05-27 07:23:23 51°11.193 2°44.183 20.9378 0.076777 0.3962 -0.882377
2005-05-27 07:23:28 51°11.187 2°44.151 20.966 0.076777 0.3962 -0.882377
2005-05-27 07:23:33 51°11.181 2°44.12 20.8824 0.076777 0.3962 -0.848668
2005-05-27 07:23:37 51°11.176 2°44.092 20.9891 0.076777 0.396194 -0.882377
2005-05-27 07:23:42 51°11.171 2°44.064 20.9697 0.076777 0.3962 -0.848668
2005-05-27 07:23:48 51°11.164 2°44.026 20.979 0.076777 0.3962 -0.848668
2005-05-27 07:23:52 51°11.159 2°43.998 20.9033 0.076777 0.3962 -0.848668
2005-05-27 07:23:58 51°11.153 2°43.964 20.9735 0.076777 0.3962 -0.848668
2005-05-27 07:24:02 51°11.148 2°43.935 20.932 0.076777 0.396206 -0.882377
2005-05-27 07:24:08 51°11.142 2°43.901 20.9831 0.076777 0.3962 -0.882377
2005-05-27 07:24:12 51°11.137 2°43.873 20.9457 0.076777 0.396206 -0.882377
2005-05-27 07:24:18 51°11.131 2°43.838 20.9347 0.076777 0.396206 -0.882377
2005-05-27 07:24:23 51°11.126 2°43.807 20.9757 0.076777 0.396206 -0.882377
2005-05-27 07:24:28 51°11.12 2°43.775 20.9835 0.076777 0.396206 -0.882377
2005-05-27 07:24:32 51°11.115 2°43.747 20.9355 0.076777 0.396206 -0.882377
2005-05-27 07:24:37 51°11.11 2°43.715 20.9543 0.076777 0.396206 -0.916087
2005-05-27 07:24:43 51°11.104 2°43.681 20.9892 0.076777 0.396211 -0.882377
2005-05-27 07:24:48 51°11.098 2°43.65 20.9892 0.076777 0.396211 -0.882377
2005-05-27 07:24:52 51°11.093 2°43.621 20.9962 0.076777 0.396211 -0.848668
2005-05-27 07:24:58 51°11.087 2°43.587 20.9525 0.076777 0.396211 -0.882377
2005-05-27 07:25:03 51°11.081 2°43.556 20.9731 0.076777 0.396211 -0.882377
2005-05-27 07:25:08 51°11.075 2°43.524 20.9792 0.076777 0.396211 -0.882377
2005-05-27 07:25:12 51°11.07 2°43.496 20.9391 0.076777 0.396211 -0.848668
2005-05-27 07:25:18 51°11.064 2°43.462 20.932 0.076777 0.396206 -0.848668
2005-05-27 07:25:22 51°11.059 2°43.433 20.9634 0.076777 0.396217 -0.882377
2005-05-27 07:25:28 51°11.053 2°43.399 20.9943 0.076777 0.396211 -0.882377
2005-05-27 07:25:32 51°11.048 2°43.371 21.0031 0.076777 0.396211 -0.882377
2005-05-27 07:25:36 51°11.043 2°43.346 20.9347 0.076777 0.396217 -0.882377
2005-05-27 07:25:43 51°11.036 2°43.305 20.9406 0.076777 0.396217 -0.882377
2005-05-27 07:25:48 51°11.031 2°43.273 20.9886 0.076777 0.396217 -0.882377
2005-05-27 07:25:52 51°11.026 2°43.245 21.0113 0.076777 0.396223 -0.882377
2005-05-27 07:25:58 51°11.019 2°43.211 21.0094 0.076777 0.396223 -0.882377
2005-05-27 07:26:03 51°11.014 2°43.179 20.9744 0.076777 0.396223 -0.882377
2005-05-27 07:26:08 51°11.008 2°43.148 20.9774 0.076777 0.396223 -0.882377
2005-05-27 07:26:12 51°11.002 2°43.12 20.9588 0.076777 0.396229 -0.882377
2005-05-27 07:26:17 51°10.997 2°43.088 20.9822 0.076777 0.396229 -0.848668
2005-05-27 07:26:22 51°10.992 2°43.06 20.9532 0.076777 0.396229 -0.848668
2005-05-27 07:26:28 51°10.985 2°43.023 20.972 0.076777 0.396229 -0.848668
2005-05-27 07:26:33 51°10.979 2°42.992 20.9882 0.076777 0.396223 -0.882377
2005-05-27 07:26:38 51°10.974 2°42.96 21.0109 0.076777 0.396229 -0.882377
2005-05-27 07:26:42 51°10.969 2°42.935 20.9677 0.076777 0.396235 -0.848668
2005-05-27 07:26:48 51°10.962 2°42.898 21.0048 0.076777 0.396229 -0.848668
2005-05-27 07:26:53 51°10.956 2°42.867 20.9862 0.076777 0.396229 -0.848668
2005-05-27 07:26:57 51°10.951 2°42.839 21.002 0.076777 0.396229 -0.848668
2005-05-27 07:27:02 51°10.946 2°42.811 21.0007 0.076777 0.396235 -0.848668
2005-05-27 07:27:08 51°10.939 2°42.773 21.0297 0.076777 0.396241 -0.882377
2005-05-27 07:27:12 51°10.934 2°42.745 20.99 0.076777 0.396235 -0.848668
2005-05-27 07:27:18 51°10.928 2°42.711 21.0085 0.076777 0.396235 -0.882377
2005-05-27 07:27:22 51°10.923 2°42.686 20.9757 0.076777 0.396241 -0.848668
2005-05-27 07:27:28 51°10.917 2°42.649 21.0315 0.076777 0.396241 -0.848668
2005-05-27 07:27:32 51°10.912 2°42.621 21.019 0.076777 0.396229 -0.848668
2005-05-27 07:27:37 51°10.907 2°42.593 21.0109 0.076777 0.396241 -0.848668
2005-05-27 07:27:42 51°10.902 2°42.562 21.0005 0.076777 0.396241 -0.814958
2005-05-27 07:27:48 51°10.895 2°42.525 21.0173 0.076777 0.396247 -0.848668
2005-05-27 07:27:52 51°10.89 2°42.497 21.0232 0.076777 0.396241 -0.882377
2005-05-27 07:27:58 51°10.884 2°42.463 20.9804 0.076777 0.396241 -0.882377
2005-05-27 07:28:02 51°10.879 2°42.438 21.002 0.076777 0.396241 -0.848668
2005-05-27 07:28:08 51°10.873 2°42.401 20.9728 0.076777 0.396241 -0.848668
2005-05-27 07:28:12 51°10.868 2°42.373 20.9971 0.076777 0.396247 -0.848668
2005-05-27 07:28:18 51°10.862 2°42.339 21.0143 0.076777 0.396241 -0.848668
2005-05-27 07:28:22 51°10.857 2°42.315 21.0349 0.076777 0.396241 -0.848668
2005-05-27 07:28:28 51°10.851 2°42.278 21.0128 0.076777 0.396241 -0.848668
2005-05-27 07:28:32 51°10.845 2°42.25 21.0325 0.076777 0.396247 -0.882377
2005-05-27 07:28:38 51°10.839 2°42.216 20.9514 0.076777 0.396247 -0.848668
2005-05-27 07:28:43 51°10.833 2°42.185 20.9978 0.076777 0.396253 -0.848668
2005-05-27 07:28:48 51°10.828 2°42.154 21.0121 0.076777 0.396253 -0.848668
2005-05-27 07:28:52 51°10.823 2°42.126 20.9959 0.076777 0.396247 -0.882377
2005-05-27 07:28:58 51°10.817 2°42.092 21.0386 0.076777 0.396247 -0.882377
2005-05-27 07:29:02 51°10.812 2°42.064 21.0016 0.076777 0.396253 -0.882377
2005-05-27 07:29:08 51°10.806 2°42.03 21.0239 0.076777 0.396253 -0.882377
2005-05-27 07:29:12 51°10.801 2°42.002 21.0345 0.076777 0.396259 -0.848668
2005-05-27 07:29:18 51°10.795 2°41.968 21.0323 0.076777 0.396253 -0.882377
2005-05-27 07:29:22 51°10.79 2°41.94 20.9955 0.076777 0.396259 -0.882377
2005-05-27 07:29:28 51°10.784 2°41.906 20.9833 0.076777 0.396259 -0.882377
2005-05-27 07:29:32 51°10.779 2°41.878 21.022 0.076777 0.396259 -0.882377
2005-05-27 07:29:38 51°10.773 2°41.844 20.9851 0.076777 0.396259 -0.882377
2005-05-27 07:29:42 51°10.769 2°41.819 21.0168 0.076777 0.396259 -0.882377
2005-05-27 07:29:48 51°10.762 2°41.782 21.067 0.076777 0.396259 -0.848668
2005-05-27 07:29:52 51°10.757 2°41.754 21.0606 0.076777 0.396259 -0.848668
2005-05-27 07:29:58 51°10.751 2°41.719 21.0469 0.076777 0.396264 -0.882377
2005-05-27 07:30:02 51°10.747 2°41.695 21.027 0.076777 0.396264 -0.882377
2005-05-27 07:30:08 51°10.74 2°41.657 21.0234 0.076777 0.396264 -0.882377
2005-05-27 07:30:12 51°10.735 2°41.629 21.0161 0.076777 0.39627 -0.882377
2005-05-27 07:30:18 51°10.729 2°41.595 21.0467 0.076777 0.396264 -0.882377
2005-05-27 07:30:22 51°10.724 2°41.57 21.0259 0.076777 0.396264 -0.882377
2005-05-27 07:30:28 51°10.718 2°41.533 21.0638 0.076777 0.39627 -0.848668
2005-05-27 07:30:32 51°10.713 2°41.505 21.03 0.076777 0.39627 -0.848668
2005-05-27 07:30:38 51°10.707 2°41.47 21.0383 0.076777 0.39627 -0.848668
2005-05-27 07:30:42 51°10.702 2°41.445 21.049 0.076777 0.396276 -0.882377
2005-05-27 07:30:48 51°10.696 2°41.408 21.027 0.076777 0.396276 -0.848668
2005-05-27 07:30:52 51°10.691 2°41.38 21.0133 0.076777 0.396276 -0.882377
2005-05-27 07:30:58 51°10.684 2°41.346 21.0084 0.076777 0.396276 -0.882377
2005-05-27 07:31:02 51°10.68 2°41.321 21.0479 0.076777 0.396276 -0.848668
2005-05-27 07:31:08 51°10.673 2°41.28 21.0376 0.076777 0.396276 -0.848668
2005-05-27 07:31:12 51°10.669 2°41.255 21.0602 0.076777 0.396276 -0.882377
2005-05-27 07:31:18 51°10.663 2°41.22 21.0699 0.076777 0.396282 -0.882377
2005-05-27 07:31:23 51°10.657 2°41.189 21.0691 0.076777 0.396282 -0.848668
2005-05-27 07:31:28 51°10.652 2°41.158 21.0365 0.076777 0.396282 -0.848668
2005-05-27 07:31:32 51°10.646 2°41.13 21.0462 0.076777 0.396282 -0.882377
2005-05-27 07:31:38 51°10.64 2°41.095 20.9955 0.076777 0.396282 -0.882377
2005-05-27 07:31:42 51°10.636 2°41.07 21.052 0.076777 0.396288 -0.848668
2005-05-27 07:31:48 51°10.629 2°41.032 21.0302 0.076777 0.396282 -0.882377
2005-05-27 07:31:52 51°10.624 2°41.004 21.0463 0.076777 0.396276 -0.882377
2005-05-27 07:31:58 51°10.618 2°40.97 21.0652 0.076777 0.396288 -0.882377
2005-05-27 07:32:02 51°10.613 2°40.941 21.0585 0.076777 0.396288 -0.882377
2005-05-27 07:32:08 51°10.607 2°40.907 21.0529 0.076777 0.396294 -0.882377
2005-05-27 07:32:12 51°10.602 2°40.878 21.0666 0.076777 0.396288 -0.882377
2005-05-27 07:32:16 51°10.598 2°40.853 21.0706 0.076777 0.396294 -0.848668
2005-05-27 07:32:22 51°10.591 2°40.819 21.0095 0.076777 0.396294 -0.848668
2005-05-27 07:32:28 51°10.584 2°40.781 21.0614 0.076777 0.396294 -0.848668
2005-05-27 07:32:33 51°10.579 2°40.75 21.043 0.076777 0.396288 -0.882377
2005-05-27 07:32:38 51°10.573 2°40.718 21.0751 0.076777 0.396294 -0.882377
2005-05-27 07:32:42 51°10.569 2°40.693 21.0298 0.076777 0.396288 -0.882377
2005-05-27 07:32:48 51°10.562 2°40.652 20.9972 0.076777 0.3963 -0.882377
2005-05-27 07:32:52 51°10.557 2°40.627 21.0672 0.076777 0.3963 -0.882377
2005-05-27 07:32:58 51°10.551 2°40.593 21.0661 0.076777 0.3963 -0.882377
2005-05-27 07:33:02 51°10.547 2°40.567 21.0749 0.076777 0.3963 -0.882377
2005-05-27 07:33:08 51°10.54 2°40.53 21.0609 0.076777 0.3963 -0.882377
2005-05-27 07:33:13 51°10.535 2°40.498 21.0763 0.076777 0.396294 -0.848668
2005-05-27 07:33:18 51°10.529 2°40.467 21.0105 0.076777 0.3963 -0.882377
2005-05-27 07:33:22 51°10.524 2°40.438 21.0531 0.076777 0.3963 -0.848668
2005-05-27 07:33:28 51°10.518 2°40.404 21.0535 0.076777 0.3963 -0.848668
2005-05-27 07:33:33 51°10.512 2°40.372 21.024 0.076777 0.3963 -0.882377
2005-05-27 07:33:37 51°10.508 2°40.343 21.0411 0.076777 0.3963 -0.882377
2005-05-27 07:33:42 51°10.504 2°40.315 21.0782 0.076777 0.3963 -0.848668
2005-05-27 07:33:48 51°10.498 2°40.277 21.0393 0.076777 0.396306 -0.848668
2005-05-27 07:33:53 51°10.493 2°40.245 21.1134 0.076777 0.3963 -0.882377
2005-05-27 07:33:58 51°10.488 2°40.213 21.0466 0.076777 0.396312 -0.848668
2005-05-27 07:34:02 51°10.484 2°40.188 21.1218 0.076777 0.396312 -0.848668
2005-05-27 07:34:08 51°10.478 2°40.15 21.021 0.076777 0.396306 -0.848668
2005-05-27 07:34:12 51°10.474 2°40.121 21.1185 0.076777 0.396312 -0.848668
2005-05-27 07:34:18 51°10.469 2°40.086 21.0833 0.076777 0.396312 -0.848668
2005-05-27 07:34:22 51°10.465 2°40.061 21.1131 0.076777 0.396312 -0.848668
2005-05-27 07:34:28 51°10.459 2°40.023 21.0612 0.076777 0.396312 -0.848668
2005-05-27 07:34:32 51°10.454 2°39.994 21.1108 0.076777 0.396318 -0.882377
2005-05-27 07:34:38 51°10.449 2°39.959 21.0478 0.076777 0.396312 -0.848668
2005-05-27 07:34:43 51°10.444 2°39.927 21.0524 0.076777 0.396312 -0.848668
2005-05-27 07:34:48 51°10.439 2°39.896 21.0424 0.076777 0.396318 -0.848668
2005-05-27 07:34:52 51°10.435 2°39.867 21.0291 0.076777 0.396312 -0.848668
2005-05-27 07:34:58 51°10.43 2°39.831 21.0949 0.076777 0.396312 -0.848668
2005-05-27 07:35:03 51°10.425 2°39.8 21.0736 0.076777 0.396318 -0.882377
2005-05-27 07:35:08 51°10.421 2°39.768 21.0887 0.076777 0.396318 -0.882377
2005-05-27 07:35:12 51°10.416 2°39.739 21.0734 0.076777 0.396318 -0.848668
2005-05-27 07:35:18 51°10.411 2°39.704 21.0586 0.076777 0.396323 -0.882377
2005-05-27 07:35:22 51°10.407 2°39.678 21.0735 0.076777 0.396318 -0.882377
2005-05-27 07:35:28 51°10.401 2°39.64 21.1123 0.076777 0.396323 -0.882377
2005-05-27 07:35:32 51°10.397 2°39.611 21.0533 0.076777 0.396323 -0.882377
2005-05-27 07:35:38 51°10.392 2°39.576 21.1044 0.076777 0.396323 -0.882377
2005-05-27 07:35:42 51°10.388 2°39.551 21.0849 0.076777 0.396323 -0.848668
2005-05-27 07:35:48 51°10.382 2°39.513 21.0711 0.076777 0.396323 -0.882377
2005-05-27 07:35:53 51°10.377 2°39.481 21.0777 0.076777 0.396323 -0.882377
2005-05-27 07:35:56 51°10.374 2°39.459 21.0999 0.076777 0.396323 -0.882377
2005-05-27 07:36:02 51°10.368 2°39.424 21.0952 0.076777 0.396329 -0.882377
2005-05-27 07:36:08 51°10.362 2°39.386 21.0625 0.076777 0.396329 -0.882377
2005-05-27 07:36:13 51°10.357 2°39.354 21.0631 0.076777 0.396329 -0.882377
2005-05-27 07:36:18 51°10.353 2°39.322 21.0916 0.076777 0.396329 -0.882377
2005-05-27 07:36:22 51°10.349 2°39.297 21.1137 0.076777 0.396329 -0.848668
2005-05-27 07:36:28 51°10.343 2°39.258 21.1032 0.076777 0.396329 -0.848668
2005-05-27 07:36:32 51°10.34 2°39.233 21.1041 0.076777 0.396329 -0.848668
2005-05-27 07:36:38 51°10.334 2°39.195 21.0765 0.076777 0.396335 -0.882377
2005-05-27 07:36:43 51°10.329 2°39.163 21.0457 0.076777 0.396335 -0.882377
2005-05-27 07:36:48 51°10.325 2°39.131 21.1187 0.076777 0.396335 -0.848668
2005-05-27 07:36:53 51°10.32 2°39.099 21.1194 0.076777 0.396335 -0.882377
2005-05-27 07:36:58 51°10.315 2°39.067 21.1262 0.076777 0.396335 -0.882377
2005-05-27 07:37:02 51°10.311 2°39.041 21.0779 0.076777 0.396341 -0.882377
2005-05-27 07:37:08 51°10.306 2°39.003 21.1237 0.076777 0.396341 -0.882377
2005-05-27 07:37:12 51°10.301 2°38.974 21.0865 0.076777 0.396341 -0.882377
2005-05-27 07:37:18 51°10.297 2°38.939 21.143 0.076777 0.396341 -0.848668
2005-05-27 07:37:22 51°10.293 2°38.913 21.1056 0.076777 0.396341 -0.848668
2005-05-27 07:37:28 51°10.286 2°38.872 21.1071 0.076777 0.396341 -0.848668
2005-05-27 07:37:32 51°10.282 2°38.847 21.1146 0.076777 0.396341 -0.848668
2005-05-27 07:37:38 51°10.277 2°38.812 21.1182 0.076777 0.396341 -0.882377
2005-05-27 07:37:42 51°10.273 2°38.786 21.1142 0.076777 0.396347 -0.848668
2005-05-27 07:37:48 51°10.266 2°38.745 21.114 0.076777 0.396347 -0.882377
2005-05-27 07:37:52 51°10.262 2°38.72 21.1477 0.076777 0.396347 -0.848668
2005-05-27 07:37:58 51°10.257 2°38.685 21.1006 0.076777 0.396347 -0.848668
2005-05-27 07:38:02 51°10.252 2°38.656 21.1227 0.076777 0.396353 -0.916087
2005-05-27 07:38:08 51°10.247 2°38.621 21.1234 0.076777 0.396347 -0.882377
2005-05-27 07:38:13 51°10.242 2°38.589 21.1111 0.076777 0.396353 -0.882377
2005-05-27 07:38:18 51°10.236 2°38.558 21.1295 0.076777 0.396353 -0.882377
2005-05-27 07:38:22 51°10.232 2°38.533 21.1176 0.076777 0.396359 -0.882377
2005-05-27 07:38:28 51°10.225 2°38.495 21.1351 0.076777 0.396359 -0.882377
2005-05-27 07:38:33 51°10.22 2°38.463 21.0906 0.076777 0.396353 -0.882377
2005-05-27 07:38:38 51°10.214 2°38.432 21.1081 0.076777 0.396353 -0.882377
2005-05-27 07:38:42 51°10.209 2°38.407 21.1104 0.076777 0.396359 -0.882377
2005-05-27 07:38:47 51°10.203 2°38.372 21.1093 0.076777 0.396359 -0.848668
2005-05-27 07:38:53 51°10.197 2°38.338 21.1227 0.076673 0.395811 -0.882377
2005-05-27 07:38:58 51°10.191 2°38.306 21.1328 0.076777 0.396359 -0.848668
2005-05-27 07:39:03 51°10.185 2°38.275 21.1147 0.076777 0.396359 -0.848668
2005-05-27 07:39:08 51°10.179 2°38.243 21.1083 0.076777 0.396365 -0.882377
2005-05-27 07:39:12 51°10.174 2°38.215 21.1148 0.076777 0.396359 -0.848668
2005-05-27 07:39:18 51°10.168 2°38.18 21.1344 0.076777 0.396365 -0.848668
2005-05-27 07:39:23 51°10.162 2°38.148 21.15 0.076777 0.396365 -0.848668
2005-05-27 07:39:28 51°10.156 2°38.117 21.1065 0.076777 0.396365 -0.848668
2005-05-27 07:39:32 51°10.151 2°38.088 21.0742 0.076777 0.396365 -0.848668
2005-05-27 07:39:36 51°10.147 2°38.063 21.139 0.076777 0.396371 -0.882377
2005-05-27 07:39:42 51°10.141 2°38.025 21.0704 0.076777 0.396365 -0.882377
2005-05-27 07:39:48 51°10.135 2°37.99 21.0997 0.076777 0.396365 -0.848668
2005-05-27 07:39:52 51°10.131 2°37.961 21.132 0.076777 0.396365 -0.882377
2005-05-27 07:39:58 51°10.125 2°37.926 21.1592 0.076777 0.396365 -0.882377
2005-05-27 07:40:03 51°10.121 2°37.895 21.1461 0.076777 0.396371 -0.848668
2005-05-27 07:40:08 51°10.116 2°37.863 21.157 0.076777 0.396371 -0.848668
2005-05-27 07:40:12 51°10.112 2°37.834 21.1601 0.076777 0.396377 -0.848668
2005-05-27 07:40:17 51°10.107 2°37.802 21.1463 0.076777 0.396377 -0.848668
2005-05-27 07:40:23 51°10.101 2°37.767 21.156 0.076777 0.396371 -0.848668
2005-05-27 07:40:28 51°10.097 2°37.735 21.1367 0.076777 0.396371 -0.848668
2005-05-27 07:40:32 51°10.092 2°37.706 21.1233 0.076777 0.396371 -0.848668
2005-05-27 07:40:38 51°10.087 2°37.671 21.118 0.076777 0.396377 -0.882377
2005-05-27 07:40:43 51°10.082 2°37.639 21.1406 0.076777 0.396377 -0.882377
2005-05-27 07:40:48 51°10.078 2°37.607 21.1431 0.076777 0.396382 -0.848668
2005-05-27 07:40:52 51°10.073 2°37.578 21.1412 0.076777 0.396377 -0.882377
2005-05-27 07:40:58 51°10.068 2°37.543 21.1413 0.076777 0.396382 -0.882377
2005-05-27 07:41:02 51°10.064 2°37.518 21.1696 0.076777 0.396382 -0.882377
2005-05-27 07:41:08 51°10.059 2°37.479 21.1641 0.076777 0.396382 -0.882377
2005-05-27 07:41:12 51°10.054 2°37.451 21.1641 0.076777 0.396388 -0.882377
2005-05-27 07:41:18 51°10.049 2°37.416 21.1284 0.076777 0.396388 -0.848668
2005-05-27 07:41:22 51°10.045 2°37.39 21.1149 0.076777 0.396388 -0.882377
2005-05-27 07:41:28 51°10.04 2°37.352 21.178 0.076777 0.396388 -0.882377
2005-05-27 07:41:32 51°10.036 2°37.323 21.1523 0.076777 0.396382 -0.882377
2005-05-27 07:41:38 51°10.031 2°37.287 21.1629 0.076777 0.396388 -0.882377
2005-05-27 07:41:42 51°10.028 2°37.262 21.1568 0.076777 0.396388 -0.882377
2005-05-27 07:41:48 51°10.023 2°37.223 21.1645 0.076673 0.39584 -0.882377
2005-05-27 07:41:52 51°10.02 2°37.193 21.1402 0.076777 0.396394 -0.882377
2005-05-27 07:41:58 51°10.015 2°37.158 21.1478 0.076777 0.396394 -0.882377
2005-05-27 07:42:03 51°10.011 2°37.126 21.1216 0.076777 0.396394 -0.882377
2005-05-27 07:42:08 51°10.007 2°37.094 21.1457 0.076777 0.3964 -0.882377
2005-05-27 07:42:13 51°10.003 2°37.062 21.1158 0.076777 0.3964 -0.916087
2005-05-27 07:42:16 51°10 2°37.039 21.1626 0.076777 0.3964 -0.848668
2005-05-27 07:42:22 51°9.996 2°37.004 21.1614 0.076777 0.396394 -0.848668
2005-05-27 07:42:28 51°9.991 2°36.965 21.1902 0.076777 0.396394 -0.848668
2005-05-27 07:42:32 51°9.987 2°36.936 21.1375 0.076777 0.3964 -0.882377
2005-05-27 07:42:38 51°9.983 2°36.901 21.1423 0.076777 0.396406 -0.848668
2005-05-27 07:42:42 51°9.979 2°36.876 21.0924 0.076777 0.396406 -0.882377
2005-05-27 07:42:48 51°9.975 2°36.837 21.1815 0.076673 0.395846 -0.848668
2005-05-27 07:42:52 51°9.972 2°36.808 21.069 0.076777 0.396406 -0.848668
2005-05-27 07:42:58 51°9.968 2°36.772 21.1982 0.076673 0.395852 -0.882377
2005-05-27 07:43:03 51°9.965 2°36.74 21.1411 0.076673 0.395852 -0.882377
2005-05-27 07:43:08 51°9.962 2°36.707 21.1883 0.076673 0.395858 -0.882377
2005-05-27 07:43:12 51°9.959 2°36.678 21.1266 0.076673 0.395852 -0.882377
2005-05-27 07:43:18 51°9.956 2°36.643 21.1449 0.076673 0.395858 -0.848668
2005-05-27 07:43:23 51°9.954 2°36.61 21.1717 0.076777 0.396412 -0.882377
2005-05-27 07:43:28 51°9.951 2°36.578 21.1036 0.076673 0.395864 -0.848668
2005-05-27 07:43:32 51°9.949 2°36.549 21.1716 0.076673 0.395864 -0.848668
2005-05-27 07:43:38 51°9.946 2°36.513 21.0955 0.076777 0.396418 -0.848668
2005-05-27 07:43:42 51°9.945 2°36.487 21.1686 0.076673 0.395858 -0.882377
2005-05-27 07:43:48 51°9.943 2°36.448 21.0934 0.076673 0.395858 -0.848668
2005-05-27 07:43:52 51°9.941 2°36.419 21.1726 0.076673 0.395864 -0.882377
2005-05-27 07:43:58 51°9.939 2°36.383 21.1537 0.076673 0.395864 -0.882377
2005-05-27 07:44:02 51°9.938 2°36.357 21.1434 0.076673 0.395864 -0.882377
2005-05-27 07:44:08 51°9.937 2°36.318 20.9398 0.076673 0.395864 -0.882377
2005-05-27 07:44:12 51°9.937 2°36.288 21.0806 0.076673 0.395869 -0.882377
2005-05-27 07:44:18 51°9.94 2°36.253 21.0527 0.076777 0.396406 -0.882377
2005-05-27 07:44:22 51°9.942 2°36.227 21.0831 0.076777 0.396418 -0.882377
2005-05-27 07:44:28 51°9.947 2°36.189 21.0608 0.076777 0.39643 -0.882377
2005-05-27 07:44:33 51°9.953 2°36.158 21.1274 0.076777 0.39643 -0.882377
2005-05-27 07:44:37 51°9.958 2°36.13 21.1209 0.076777 0.396424 -0.882377
2005-05-27 07:44:42 51°9.964 2°36.104 21.1247 0.076673 0.395875 -0.882377
2005-05-27 07:44:48 51°9.973 2°36.068 21.0782 0.076777 0.396436 -0.882377
2005-05-27 07:44:52 51°9.981 2°36.042 21.1412 0.076777 0.396436 -0.848668
2005-05-27 07:44:58 51°9.992 2°36.011 21.0603 0.076777 0.396436 -0.848668
2005-05-27 07:45:02 51°10.001 2°35.986 21.0452 0.076777 0.396436 -0.848668
2005-05-27 07:45:08 51°10.014 2°35.958 21.1261 0.076673 0.395875 -0.882377
2005-05-27 07:45:12 51°10.025 2°35.936 21.1282 0.076673 0.395875 -0.882377
2005-05-27 07:45:18 51°10.039 2°35.91 21.1619 0.076673 0.395887 -0.848668
2005-05-27 07:45:23 51°10.052 2°35.887 21.1474 0.076777 0.396447 -0.882377
2005-05-27 07:45:28 51°10.066 2°35.864 21.0129 0.076777 0.396447 -0.882377
2005-05-27 07:45:32 51°10.079 2°35.846 21.1354 0.076673 0.395893 -0.882377
2005-05-27 07:45:38 51°10.095 2°35.826 21.1225 0.076673 0.395881 -0.882377
2005-05-27 07:45:43 51°10.111 2°35.808 21.1269 0.076673 0.395887 -0.848668
2005-05-27 07:45:48 51°10.127 2°35.792 21.0904 0.076673 0.395881 -0.882377
2005-05-27 07:45:53 51°10.143 2°35.778 21.1798 0.076777 0.396436 -0.848668
2005-05-27 07:45:58 51°10.16 2°35.764 21.1449 0.076777 0.396436 -0.848668
2005-05-27 07:46:02 51°10.174 2°35.754 21.1859 0.076673 0.395881 -0.848668
2005-05-27 07:46:08 51°10.194 2°35.74 21.1641 0.076673 0.395887 -0.848668
2005-05-27 07:46:12 51°10.209 2°35.73 21.185 0.076777 0.396436 -0.848668
2005-05-27 07:46:18 51°10.227 2°35.718 21.1855 0.076673 0.395893 -0.882377
2005-05-27 07:46:23 51°10.244 2°35.706 21.1935 0.076777 0.396447 -0.882377
2005-05-27 07:46:28 51°10.261 2°35.696 21.0867 0.076673 0.395899 -0.848668
2005-05-27 07:46:33 51°10.278 2°35.687 21.1377 0.076673 0.395899 -0.848668
2005-05-27 07:46:38 51°10.296 2°35.679 20.99 0.076777 0.396447 -0.882377
2005-05-27 07:46:42 51°10.31 2°35.675 21.0901 0.076777 0.396441 -0.848668
2005-05-27 07:46:48 51°10.332 2°35.672 21.0065 0.076673 0.395875 -0.848668
2005-05-27 07:46:52 51°10.348 2°35.673 21.0763 0.076673 0.395887 -0.882377
2005-05-27 07:46:58 51°10.367 2°35.677 21.1353 0.076673 0.395887 -0.882377
2005-05-27 07:47:02 51°10.381 2°35.682 21.1508 0.076673 0.395887 -0.882377
2005-05-27 07:47:08 51°10.401 2°35.69 21.145 0.076673 0.395899 -0.882377
2005-05-27 07:47:12 51°10.416 2°35.697 21.1951 0.076673 0.395911 -0.814958
2005-05-27 07:47:18 51°10.434 2°35.707 21.1641 0.076673 0.395917 -0.882377
2005-05-27 07:47:22 51°10.447 2°35.715 21.1747 0.076673 0.395911 -0.848668
2005-05-27 07:47:28 51°10.467 2°35.727 21.1822 0.076673 0.395911 -0.848668
2005-05-27 07:47:32 51°10.481 2°35.736 21.1974 0.076673 0.395917 -0.882377
2005-05-27 07:47:38 51°10.499 2°35.747 21.1884 0.076673 0.395917 -0.848668
2005-05-27 07:47:43 51°10.515 2°35.757 21.1898 0.076673 0.395917 -0.916087
2005-05-27 07:47:48 51°10.531 2°35.768 21.0964 0.076673 0.395917 -0.848668
2005-05-27 07:47:52 51°10.545 2°35.778 21.1449 0.076673 0.395934 -0.848668
2005-05-27 07:47:58 51°10.562 2°35.793 21.1344 0.076777 0.396477 -0.882377
2005-05-27 07:48:02 51°10.576 2°35.804 21.141 0.076777 0.396477 -0.882377
2005-05-27 07:48:08 51°10.592 2°35.82 21.1743 0.076777 0.396477 -0.882377
2005-05-27 07:48:12 51°10.605 2°35.833 21.1893 0.076673 0.395928 -0.848668
2005-05-27 07:48:18 51°10.621 2°35.85 21.1925 0.076673 0.395928 -0.848668
2005-05-27 07:48:23 51°10.636 2°35.865 21.1886 0.076673 0.395934 -0.882377
2005-05-27 07:48:28 51°10.65 2°35.88 21.2104 0.076673 0.395934 -0.848668
2005-05-27 07:48:32 51°10.663 2°35.894 21.1944 0.076673 0.395934 -0.848668
2005-05-27 07:48:38 51°10.679 2°35.91 21.2054 0.076673 0.395946 -0.882377
2005-05-27 07:48:42 51°10.692 2°35.925 21.121 0.076673 0.395952 -0.814958
2005-05-27 07:48:48 51°10.708 2°35.942 21.1497 0.076673 0.395964 -0.882377
2005-05-27 07:48:52 51°10.719 2°35.958 21.1201 0.076673 0.395952 -0.848668
2005-05-27 07:48:58 51°10.734 2°35.977 21.1997 0.076673 0.395952 -0.848668
2005-05-27 07:49:02 51°10.744 2°35.992 21.1553 0.076673 0.395952 -0.882377
2005-05-27 07:49:08 51°10.758 2°36.015 21.2224 0.076673 0.395958 -0.882377
2005-05-27 07:49:13 51°10.77 2°36.034 21.1667 0.076673 0.395958 -0.882377
2005-05-27 07:49:16 51°10.779 2°36.047 21.2107 0.076673 0.395958 -0.882377
2005-05-27 07:49:22 51°10.793 2°36.069 21.1995 0.076673 0.395964 -0.882377
2005-05-27 07:49:28 51°10.808 2°36.092 21.2227 0.076673 0.395964 -0.882377
2005-05-27 07:49:33 51°10.82 2°36.112 21.2137 0.076673 0.395976 -0.882377
2005-05-27 07:49:38 51°10.833 2°36.131 21.2204 0.076673 0.395981 -0.882377
2005-05-27 07:49:43 51°10.845 2°36.15 21.2122 0.076673 0.395987 -0.882377
2005-05-27 07:49:48 51°10.858 2°36.17 21.2166 0.076673 0.395999 -0.882377
2005-05-27 07:49:53 51°10.87 2°36.189 21.2355 0.076673 0.395999 -0.848668
2005-05-27 07:49:58 51°10.882 2°36.208 21.1888 0.076673 0.395999 -0.848668
2005-05-27 07:50:02 51°10.892 2°36.224 21.2195 0.076673 0.396011 -0.882377
2005-05-27 07:50:08 51°10.907 2°36.247 21.1871 0.076673 0.396011 -0.882377
2005-05-27 07:50:12 51°10.918 2°36.264 21.2317 0.076673 0.396011 -0.916087
2005-05-27 07:50:18 51°10.932 2°36.286 21.203 0.076673 0.396011 -0.882377
2005-05-27 07:50:23 51°10.944 2°36.306 21.233 0.076673 0.396017 -0.848668
2005-05-27 07:50:28 51°10.957 2°36.325 21.1937 0.076673 0.396017 -0.848668
2005-05-27 07:50:32 51°10.968 2°36.342 21.2394 0.076673 0.396023 -0.882377
2005-05-27 07:50:38 51°10.981 2°36.363 21.2349 0.076673 0.396035 -0.882377
2005-05-27 07:50:43 51°10.994 2°36.382 21.2213 0.076673 0.39604 -0.882377
2005-05-27 07:50:48 51°11.006 2°36.401 21.2251 0.076673 0.39604 -0.882377
2005-05-27 07:50:52 51°11.018 2°36.419 21.2331 0.076673 0.396058 -0.848668
2005-05-27 07:50:58 51°11.031 2°36.439 21.2042 0.076673 0.396058 -0.848668
2005-05-27 07:51:03 51°11.044 2°36.458 21.2073 0.076673 0.396058 -0.882377
2005-05-27 07:51:08 51°11.057 2°36.477 21.2104 0.076673 0.396058 -0.848668
2005-05-27 07:51:12 51°11.068 2°36.494 21.2363 0.076673 0.396064 -0.882377
2005-05-27 07:51:18 51°11.082 2°36.515 21.2151 0.076673 0.39607 -0.848668
2005-05-27 07:51:22 51°11.093 2°36.532 21.2228 0.076673 0.396076 -0.882377
2005-05-27 07:51:28 51°11.107 2°36.553 21.2413 0.076673 0.396076 -0.848668
2005-05-27 07:51:32 51°11.118 2°36.57 21.2262 0.076673 0.396076 -0.848668
2005-05-27 07:51:38 51°11.132 2°36.591 21.2412 0.076673 0.396088 -0.848668
2005-05-27 07:51:43 51°11.145 2°36.609 21.2343 0.076673 0.396094 -0.882377
2005-05-27 07:51:48 51°11.157 2°36.629 21.2515 0.076673 0.396099 -0.882377
2005-05-27 07:51:52 51°11.169 2°36.646 21.2284 0.076673 0.396099 -0.848668
2005-05-27 07:51:58 51°11.182 2°36.666 21.2401 0.076673 0.396099 -0.848668
2005-05-27 07:52:03 51°11.195 2°36.685 21.2246 0.076673 0.396111 -0.848668
2005-05-27 07:52:07 51°11.206 2°36.702 21.2483 0.076673 0.396123 -0.882377
2005-05-27 07:52:12 51°11.219 2°36.721 21.2238 0.076673 0.396123 -0.848668
2005-05-27 07:52:18 51°11.233 2°36.742 21.2181 0.076673 0.396135 -0.848668
2005-05-27 07:52:22 51°11.243 2°36.758 21.2662 0.076673 0.396129 -0.882377
2005-05-27 07:52:28 51°11.257 2°36.781 21.242 0.076673 0.396129 -0.882377
2005-05-27 07:52:32 51°11.269 2°36.798 21.2546 0.076673 0.396141 -0.882377
2005-05-27 07:52:38 51°11.283 2°36.818 21.2569 0.076673 0.396147 -0.848668
2005-05-27 07:52:42 51°11.293 2°36.833 21.2686 0.076673 0.396153 -0.882377
2005-05-27 07:52:48 51°11.308 2°36.856 21.2384 0.076673 0.396158 -0.882377
2005-05-27 07:52:52 51°11.319 2°36.873 21.2105 0.076673 0.396164 -0.848668
2005-05-27 07:52:58 51°11.333 2°36.894 21.2554 0.076673 0.396164 -0.848668
2005-05-27 07:53:03 51°11.346 2°36.913 21.2531 0.076673 0.39617 -0.848668
2005-05-27 07:53:08 51°11.358 2°36.932 21.231 0.076673 0.396176 -0.882377
2005-05-27 07:53:12 51°11.369 2°36.949 21.2378 0.076673 0.396182 -0.848668
2005-05-27 07:53:18 51°11.383 2°36.97 21.2585 0.076673 0.396188 -0.848668
2005-05-27 07:53:22 51°11.393 2°36.985 21.2503 0.076673 0.396194 -0.882377
2005-05-27 07:53:28 51°11.408 2°37.007 21.2645 0.076673 0.3962 -0.848668
2005-05-27 07:53:33 51°11.421 2°37.026 21.2485 0.076673 0.3962 -0.848668
2005-05-27 07:53:38 51°11.434 2°37.045 21.2528 0.076673 0.396206 -0.848668
2005-05-27 07:53:42 51°11.444 2°37.061 21.2725 0.076673 0.396218 -0.882377
2005-05-27 07:53:48 51°11.459 2°37.083 21.2775 0.076673 0.396223 -0.848668
2005-05-27 07:53:52 51°11.47 2°37.1 21.2786 0.076673 0.396223 -0.882377
2005-05-27 07:53:58 51°11.484 2°37.121 21.2761 0.076673 0.396223 -0.882377
2005-05-27 07:54:02 51°11.494 2°37.136 21.2518 0.076673 0.396235 -0.848668
2005-05-27 07:54:08 51°11.51 2°37.157 21.282 0.076673 0.396247 -0.848668
2005-05-27 07:54:12 51°11.522 2°37.173 21.2301 0.076673 0.396253 -0.882377
2005-05-27 07:54:18 51°11.537 2°37.192 21.2718 0.076673 0.396259 -0.848668
2005-05-27 07:54:23 51°11.551 2°37.209 21.2027 0.076673 0.396259 -0.848668
2005-05-27 07:54:28 51°11.564 2°37.227 21.2795 0.076673 0.396259 -0.848668
2005-05-27 07:54:32 51°11.576 2°37.242 21.2357 0.076673 0.396265 -0.882377
2005-05-27 07:54:38 51°11.591 2°37.262 21.2968 0.076673 0.396277 -0.848668
2005-05-27 07:54:42 51°11.602 2°37.275 21.284 0.076673 0.396277 -0.848668
2005-05-27 07:54:48 51°11.619 2°37.295 21.2661 0.076673 0.396288 -0.848668
2005-05-27 07:54:52 51°11.631 2°37.309 21.2509 0.076673 0.396294 -0.882377
2005-05-27 07:54:58 51°11.647 2°37.327 21.25 0.076673 0.3963 -0.882377
2005-05-27 07:55:03 51°11.661 2°37.343 21.2425 0.076673 0.3963 -0.882377
2005-05-27 07:55:08 51°11.676 2°37.359 21.2548 0.076673 0.396312 -0.848668
2005-05-27 07:55:12 51°11.688 2°37.373 21.267 0.076673 0.396318 -0.848668
2005-05-27 07:55:18 51°11.705 2°37.39 21.2501 0.076673 0.396324 -0.882377
2005-05-27 07:55:22 51°11.718 2°37.404 21.2589 0.076673 0.396324 -0.882377
2005-05-27 07:55:28 51°11.733 2°37.421 21.206 0.076673 0.39633 -0.882377
2005-05-27 07:55:32 51°11.746 2°37.435 21.2914 0.076673 0.39633 -0.882377
2005-05-27 07:55:38 51°11.761 2°37.452 21.2481 0.076673 0.396342 -0.882377
2005-05-27 07:55:42 51°11.774 2°37.467 21.3025 0.076673 0.396348 -0.882377
2005-05-27 07:55:48 51°11.79 2°37.484 21.2476 0.076673 0.396359 -0.848668
2005-05-27 07:55:52 51°11.802 2°37.499 21.2661 0.076673 0.396365 -0.882377
2005-05-27 07:55:58 51°11.818 2°37.516 21.2755 0.076673 0.396365 -0.882377
2005-05-27 07:56:03 51°11.832 2°37.532 21.2673 0.076673 0.396371 -0.882377
2005-05-27 07:56:08 51°11.846 2°37.548 21.2938 0.076673 0.396371 -0.882377
2005-05-27 07:56:13 51°11.861 2°37.564 21.2601 0.076673 0.396389 -0.882377
2005-05-27 07:56:18 51°11.875 2°37.58 21.3089 0.076673 0.396395 -0.882377
2005-05-27 07:56:22 51°11.888 2°37.594 21.2682 0.076673 0.396401 -0.848668
2005-05-27 07:56:28 51°11.903 2°37.611 21.2819 0.076673 0.396401 -0.848668
2005-05-27 07:56:32 51°11.916 2°37.625 21.2776 0.076673 0.396407 -0.848668
2005-05-27 07:56:38 51°11.931 2°37.642 21.2972 0.076673 0.396413 -0.848668
2005-05-27 07:56:42 51°11.942 2°37.654 21.2775 0.076673 0.396424 -0.882377
2005-05-27 07:56:48 51°11.959 2°37.672 21.2715 0.076673 0.396436 -0.848668
2005-05-27 07:56:52 51°11.972 2°37.686 21.2921 0.076673 0.396436 -0.848668
2005-05-27 07:56:58 51°11.987 2°37.703 21.2982 0.076673 0.396436 -0.882377
2005-05-27 07:57:03 51°12.001 2°37.719 21.3014 0.076673 0.396436 -0.882377
2005-05-27 07:57:08 51°12.015 2°37.734 21.2975 0.076673 0.396448 -0.848668
2005-05-27 07:57:12 51°12.027 2°37.748 21.3012 0.076673 0.396454 -0.882377
2005-05-27 07:57:18 51°12.043 2°37.765 21.2994 0.076673 0.396472 -0.882377
2005-05-27 07:57:22 51°12.054 2°37.777 21.3238 0.076673 0.396478 -0.882377
2005-05-27 07:57:28 51°12.071 2°37.795 21.3495 0.076673 0.396478 -0.882377
2005-05-27 07:57:32 51°12.085 2°37.808 21.3075 0.076673 0.396478 -0.882377
2005-05-27 07:57:38 51°12.101 2°37.824 21.3149 0.076673 0.396495 -0.882377
2005-05-27 07:57:42 51°12.114 2°37.834 21.2842 0.076673 0.396501 -0.848668
2005-05-27 07:57:48 51°12.132 2°37.85 21.2707 0.076673 0.396501 -0.882377
2005-05-27 07:57:52 51°12.146 2°37.861 21.3036 0.076569 0.395958 -0.848668
2005-05-27 07:57:56 51°12.158 2°37.871 21.3065 0.076569 0.395958 -0.848668
2005-05-27 07:58:03 51°12.178 2°37.887 21.2841 0.076569 0.395964 -0.882377
2005-05-27 07:58:08 51°12.194 2°37.899 21.2788 0.076569 0.395976 -0.882377
2005-05-27 07:58:13 51°12.209 2°37.912 21.2781 0.076673 0.396531 -0.848668
2005-05-27 07:58:17 51°12.223 2°37.923 21.3214 0.076673 0.396537 -0.882377
2005-05-27 07:58:23 51°12.24 2°37.936 21.3114 0.076673 0.396543 -0.848668
2005-05-27 07:58:28 51°12.255 2°37.949 21.2928 0.076673 0.396543 -0.848668
2005-05-27 07:58:32 51°12.269 2°37.96 21.3041 0.076569 0.395999 -0.882377
2005-05-27 07:58:38 51°12.286 2°37.973 21.2834 0.076673 0.39656 -0.848668
2005-05-27 07:58:42 51°12.3 2°37.984 21.2933 0.076569 0.396011 -0.882377
2005-05-27 07:58:48 51°12.317 2°37.997 21.3214 0.076569 0.396023 -0.848668
2005-05-27 07:58:52 51°12.331 2°38.008 21.3297 0.076673 0.396584 -0.848668
2005-05-27 07:58:58 51°12.348 2°38.022 21.3123 0.076569 0.396035 -0.848668
2005-05-27 07:59:03 51°12.363 2°38.035 21.3318 0.076569 0.396035 -0.848668
2005-05-27 07:59:08 51°12.378 2°38.047 21.3076 0.076569 0.396047 -0.848668
2005-05-27 07:59:12 51°12.392 2°38.058 21.3117 0.076569 0.396047 -0.848668
2005-05-27 07:59:18 51°12.409 2°38.072 21.2559 0.076569 0.396058 -0.882377
2005-05-27 07:59:23 51°12.425 2°38.084 21.3133 0.076569 0.396058 -0.882377
2005-05-27 07:59:28 51°12.44 2°38.096 21.2835 0.076569 0.396058 -0.882377
2005-05-27 07:59:32 51°12.454 2°38.107 21.3308 0.076569 0.39607 -0.882377
2005-05-27 07:59:38 51°12.471 2°38.121 21.2572 0.076569 0.39607 -0.882377
2005-05-27 07:59:42 51°12.483 2°38.131 21.3272 0.076569 0.396088 -0.882377
2005-05-27 07:59:48 51°12.503 2°38.148 21.3151 0.076569 0.396094 -0.848668
2005-05-27 07:59:53 51°12.517 2°38.159 21.3365 0.076569 0.3961 -0.882377
2005-05-27 07:59:58 51°12.532 2°38.171 21.3141 0.076569 0.3961 -0.882377
2005-05-27 08:00:03 51°12.548 2°38.183 21.2925 0.076569 0.396106 -0.882377
2005-05-27 08:00:08 51°12.563 2°38.195 21.2997 0.076569 0.396117 -0.848668
2005-05-27 08:00:12 51°12.577 2°38.207 21.3316 0.076569 0.396123 -0.882377
2005-05-27 08:00:18 51°12.594 2°38.22 21.311 0.076569 0.396129 -0.882377
2005-05-27 08:00:22 51°12.606 2°38.23 21.329 0.076569 0.396135 -0.882377
2005-05-27 08:00:28 51°12.626 2°38.245 21.3165 0.076569 0.396141 -0.882377
2005-05-27 08:00:33 51°12.64 2°38.256 21.3065 0.076569 0.396141 -0.882377
2005-05-27 08:00:38 51°12.656 2°38.268 21.3244 0.076569 0.396147 -0.848668
2005-05-27 08:00:43 51°12.671 2°38.28 21.3159 0.076569 0.396153 -0.848668
2005-05-27 08:00:48 51°12.687 2°38.293 21.2981 0.076569 0.396159 -0.848668
2005-05-27 08:00:52 51°12.701 2°38.304 21.3134 0.076569 0.396171 -0.882377
2005-05-27 08:00:58 51°12.718 2°38.317 21.3456 0.076569 0.396171 -0.882377
2005-05-27 08:01:02 51°12.73 2°38.327 21.3065 0.076569 0.396177 -0.882377
2005-05-27 08:01:08 51°12.748 2°38.342 21.355 0.076569 0.396188 -0.848668
2005-05-27 08:01:12 51°12.762 2°38.353 21.3059 0.076569 0.396188 -0.882377
2005-05-27 08:01:18 51°12.779 2°38.367 21.334 0.076569 0.3962 -0.848668
2005-05-27 08:01:22 51°12.792 2°38.377 21.2939 0.076569 0.396206 -0.848668
2005-05-27 08:01:28 51°12.81 2°38.391 21.3468 0.076569 0.396206 -0.848668
2005-05-27 08:01:32 51°12.824 2°38.403 21.3087 0.076569 0.396212 -0.848668
2005-05-27 08:01:38 51°12.842 2°38.416 21.3308 0.076569 0.396224 -0.848668
2005-05-27 08:01:43 51°12.857 2°38.428 21.3208 0.076569 0.396224 -0.882377
2005-05-27 08:01:48 51°12.873 2°38.441 21.3556 0.076569 0.396242 -0.848668
2005-05-27 08:01:52 51°12.887 2°38.451 21.3427 0.076569 0.396248 -0.882377
2005-05-27 08:01:58 51°12.904 2°38.464 21.3611 0.076569 0.396248 -0.882377